[{"header": {"dx": 0.06612293990616946, "dy": 0.0552356325346848, "nx": 98, "ny": 59, "la1": 35.046912555036876, "la2": 31.78801023549047, "lo1": -121.43107172385933, "lo2": -114.95102361305473, "refTime": "2026041602", "parameterCategory": 1, "parameterNumber": 2}, "data": [10.74, 10.74, 10.74, 11.04, 11.1, 11.1, 11.08, 11.06, 11.03, 10.72, 10.36, 9.08, 8.68, 7.03, 6.28, 5.31, 4.92, 4.47, 4.47, 4.47, 4.02, 4.02, 5.81, 6.26, 4.19, 0.0, -2.6, -2.6, -1.7, -1.55, -0.81, 0.0, 0.0, 0.87, 1.4, 1.6, 2.21, 3.16, 3.16, 3.84, 4.09, 4.81, 6.32, 7.64, 10.16, 11.83, 13.04, 12.15, 10.25, 9.39, 9.39, 9.8, 10.16, 10.62, 11.51, 11.84, 12.3, 12.3, 12.3, 11.84, 11.96, 11.52, 11.84, 11.84, 11.96, 12.3, 12.3, 12.3, 11.66, 11.23, 11.36, 11.36, 11.06, 10.16, 10.16, 10.7, 10.26, 9.83, 8.94, 7.6, 6.26, 5.36, 3.04, 1.24, -0.0, -0.0, -0.0, -0.0, 0.7, 0.79, 0.79, 0.73, 0.73, 1.41, 1.49, 1.84, 2.23, 3.14, 10.74, 10.47, 10.47, 10.76, 10.76, 11.4, 11.08, 11.06, 11.03, 10.43, 9.8, 9.56, 8.03, 7.28, 7.81, 6.79, 4.85, 4.92, 3.58, 4.38, 4.47, 3.58, 3.13, 4.92, 4.22, 0.0, -2.6, -2.6, -2.6, -2.2, -1.66, -0.79, 0.0, 0.0, 0.71, 1.49, 2.21, 3.16, 3.16, 3.79, 4.43, 5.06, 7.21, 9.0, 10.91, 12.27, 11.2, 8.82, 8.01, 8.05, 8.94, 9.39, 9.81, 10.26, 10.63, 11.52, 11.96, 11.96, 11.96, 11.96, 11.52, 11.52, 11.52, 11.96, 11.96, 12.3, 12.3, 12.3, 12.3, 11.84, 11.4, 10.62, 10.16, 10.7, 10.7, 11.15, 9.81, 9.83, 8.94, 7.6, 6.26, 5.36, 3.04, 1.24, -0.0, -0.0, -0.0, -0.0, 0.7, 0.79, 0.79, 0.73, 0.73, 1.41, 1.49, 1.84, 2.23, 3.14, 10.1, 10.1, 10.76, 10.76, 10.76, 11.06, 11.1, 11.06, 10.75, 10.43, 9.8, 7.93, 8.03, 7.44, 6.94, 6.7, 6.07, 5.59, 5.09, 4.34, 4.57, 4.34, 3.82, 3.39, 2.53, 0.0, -2.4, -3.22, -2.29, -2.29, -2.29, -1.55, 0.0, 0.0, 0.76, 1.98, 3.48, 3.79, 3.72, 4.29, 5.69, 6.95, 8.6, 9.62, 10.29, 10.23, 9.06, 7.56, 7.6, 8.05, 8.49, 8.94, 9.39, 10.28, 10.26, 11.15, 11.6, 11.6, 12.04, 11.52, 11.52, 11.52, 11.84, 11.86, 11.84, 11.84, 12.3, 12.3, 12.3, 11.96, 11.52, 11.06, 10.62, 10.62, 10.16, 10.7, 9.81, 9.39, 8.05, 6.71, 5.36, 4.47, 2.12, 0.54, -0.0, -0.0, -0.0, -0.0, -0.0, 0.79, 0.79, 0.7, 0.7, 1.33, 1.84, 2.15, 2.53, 3.07, 10.1, 10.39, 10.11, 10.47, 10.47, 10.47, 11.1, 11.08, 10.76, 10.43, 9.5, 8.24, 7.9, 6.7, 6.44, 6.8, 6.7, 6.16, 5.34, 5.09, 5.09, 5.2, 4.8, 4.8, 3.48, 0.0, -2.4, -3.22, -2.29, -2.35, -2.35, -1.63, -1.52, 0.0, 1.27, 2.0, 2.95, 4.43, 4.83, 5.49, 6.14, 7.9, 8.3, 8.67, 8.95, 8.63, 8.01, 8.05, 8.05, 8.49, 8.49, 9.39, 9.83, 9.83, 10.28, 10.73, 11.15, 11.6, 11.96, 11.96, 11.84, 11.84, 12.3, 12.3, 11.84, 11.84, 12.3, 12.33, 11.75, 11.28, 10.75, 10.02, 10.02, 10.05, 9.74, 9.81, 9.39, 8.94, 7.6, 6.26, 4.92, 3.13, 1.24, -0.0, -0.7, -0.81, -0.81, -0.0, -0.0, -0.0, -0.0, -0.0, 0.61, 1.4, 1.88, 2.5, 2.68, 2.5, 9.83, 10.11, 10.11, 10.11, 10.47, 10.76, 10.76, 11.1, 10.76, 10.43, 9.19, 8.24, 7.18, 6.01, 6.08, 6.44, 6.25, 6.0, 5.34, 4.84, 4.65, 3.48, 4.09, 5.2, 4.54, 1.08, -1.3, -2.4, -1.05, -1.52, -1.55, -1.65, -1.65, 0.0, 1.18, 2.26, 3.4, 4.46, 5.38, 5.38, 5.49, 6.39, 7.03, 7.35, 7.71, 7.42, 7.11, 7.6, 8.05, 8.94, 8.94, 9.83, 9.83, 10.28, 10.28, 10.73, 11.15, 11.52, 11.96, 11.84, 11.84, 11.84, 11.84, 11.84, 11.4, 11.4, 10.93, 10.75, 10.15, 9.6, 9.2, 9.49, 9.6, 9.33, 9.26, 8.94, 8.94, 8.46, 6.66, 6.26, 4.43, 2.6, -0.0, -0.65, -2.3, -1.49, -0.79, -0.0, -0.0, -0.0, -0.0, 0.65, 0.65, 1.49, 1.9, 2.15, 2.5, 1.88, 9.73, 10.11, 10.11, 10.11, 10.47, 10.76, 10.76, 10.76, 10.47, 10.13, 8.58, 7.33, 6.88, 6.73, 6.11, 6.44, 6.44, 6.18, 5.43, 5.37, 4.42, 3.2, 2.32, 2.6, 3.49, 1.19, -0.96, -0.96, -0.96, -1.14, -0.83, 0.0, 0.0, 0.8, 1.49, 1.55, 2.51, 4.95, 5.49, 4.12, 4.03, 4.11, 5.82, 7.21, 7.89, 7.11, 7.15, 7.6, 8.49, 8.94, 9.39, 9.39, 9.39, 9.81, 10.25, 10.62, 11.06, 11.4, 11.84, 12.3, 11.86, 11.96, 11.52, 11.06, 10.49, 9.83, 9.08, 9.05, 9.05, 9.27, 9.6, 9.6, 9.74, 9.83, 9.7, 8.94, 7.56, 6.66, 4.87, 3.97, 2.24, 0.57, -1.2, -1.88, -2.53, -1.88, -1.2, -0.54, -0.54, -0.0, -0.0, 0.54, 0.99, 1.24, 1.58, 1.61, 1.16, 1.33, 9.73, 9.73, 10.11, 10.11, 10.11, 10.76, 10.76, 10.47, 10.77, 9.84, 8.24, 6.34, 6.42, 7.06, 8.0, 6.44, 6.79, 6.79, 6.39, 5.69, 5.69, 5.1, 3.09, 1.73, 1.18, 0.0, -1.08, -1.08, -0.96, -0.89, 0.0, 0.0, 0.74, 2.26, 2.26, 1.45, 2.35, 3.49, 3.79, 2.35, 1.05, 0.99, 2.53, 2.97, 4.02, 5.81, 6.21, 6.66, 7.56, 8.87, 9.32, 8.36, 9.24, 9.54, 10.02, 10.93, 10.93, 10.93, 11.96, 12.42, 12.05, 11.6, 11.15, 10.16, 8.55, 8.06, 8.38, 8.32, 8.67, 9.49, 9.33, 9.33, 9.58, 10.16, 10.25, 9.39, 7.6, 5.36, 3.58, 2.68, 1.2, -0.65, -1.88, -2.5, -2.8, -2.4, -1.86, -1.26, -1.26, -0.6, -0.6, -0.0, 0.57, 0.71, 0.65, 0.61, 0.7, 0.59, 9.47, 9.47, 9.84, 10.11, 10.11, 10.76, 10.47, 10.47, 10.47, 9.5, 7.96, 5.7, 6.04, 6.64, 8.23, 7.32, 7.32, 7.69, 6.68, 6.39, 6.44, 7.03, 7.07, 5.37, 3.33, 0.0, -0.95, -0.89, 0.0, -1.05, 0.0, 0.0, 1.01, 2.26, 2.26, 1.45, 0.81, 0.0, 0.0, 0.0, 0.0, 0.0, 0.89, 2.0, 2.21, 4.4, 5.82, 6.94, 7.35, 8.67, 7.71, 8.63, 9.33, 9.75, 10.45, 11.06, 11.06, 10.7, 11.62, 12.07, 12.07, 11.18, 9.36, 7.6, 6.24, 7.18, 8.65, 9.2, 8.82, 9.11, 9.26, 9.36, 9.39, 10.28, 10.28, 9.39, 8.49, 5.81, 4.47, 2.68, 1.84, -0.0, -1.2, -2.4, -2.6, -2.68, -2.24, -1.79, -1.79, -1.34, -0.8, -0.6, -0.0, -0.0, -0.0, -0.0, 0.59, 0.59, 9.47, 9.47, 9.47, 9.84, 9.84, 10.76, 10.47, 10.47, 10.13, 9.5, 7.59, 5.89, 5.64, 6.0, 6.7, 6.83, 6.83, 6.95, 6.32, 5.69, 5.59, 6.8, 8.72, 9.24, 8.0, 4.4, -0.0, -0.0, 0.45, 0.0, 0.0, 0.0, 1.08, 1.27, 2.53, 1.66, 0.0, -1.58, -0.0, -0.0, -0.0, 0.99, 1.98, 2.53, 3.72, 4.8, 5.81, 6.23, 7.35, 7.89, 9.21, 8.4, 8.91, 9.54, 10.16, 10.7, 11.18, 11.15, 11.6, 11.52, 11.15, 8.94, 6.16, 4.71, 5.52, 7.97, 9.05, 8.95, 8.14, 8.36, 8.49, 8.94, 10.25, 10.63, 10.63, 10.25, 8.01, 6.71, 4.47, 3.32, 2.88, 2.11, 0.61, -1.26, -2.24, -2.68, -2.68, -2.12, -2.17, -1.79, -1.26, -1.2, -0.59, -0.0, -0.0, 0.59, 0.59, 0.59, 9.47, 9.47, 9.47, 9.84, 10.13, 10.13, 10.47, 9.84, 9.84, 8.86, 7.57, 7.16, 6.94, 6.27, 5.72, 5.86, 6.7, 5.86, 4.8, 4.4, 4.4, 5.45, 7.9, 8.41, 8.0, 4.8, 1.26, -0.0, 1.34, 2.0, 0.95, 0.0, 0.0, 0.45, 0.89, 1.34, -0.0, -0.0, 1.2, 3.35, 3.84, 4.19, 4.84, 5.2, 5.59, 6.2, 6.65, 6.98, 7.35, 8.0, 8.0, 8.55, 8.82, 9.26, 9.36, 9.39, 9.83, 10.25, 10.49, 10.45, 8.01, 5.2, 3.35, 4.07, 5.76, 6.24, 7.06, 7.32, 6.13, 6.21, 7.15, 8.91, 10.52, 10.96, 10.96, 10.52, 8.63, 7.42, 4.43, 2.5, 3.55, 4.94, 4.07, 0.71, -1.2, -2.17, -2.8, -2.4, -2.24, -1.9, -1.16, -1.27, -0.66, -0.0, -0.0, 0.66, 0.66, 0.66, 9.47, 9.47, 9.47, 9.84, 10.13, 10.13, 10.13, 10.13, 9.49, 8.86, 8.22, 8.2, 8.2, 7.57, 7.38, 6.33, 6.7, 4.63, 4.03, 3.81, 4.8, 5.0, 5.14, 5.64, 5.46, 1.9, 0.45, 0.45, 0.89, 1.6, 0.89, -0.0, -0.0, -0.0, 0.95, 0.89, 2.0, 2.21, 3.16, 4.84, 5.43, 4.84, 5.75, 6.79, 6.61, 5.75, 6.21, 6.28, 6.4, 6.44, 7.03, 7.07, 7.42, 7.03, 6.07, 5.82, 6.4, 6.66, 6.98, 5.29, 2.41, 2.31, 3.25, 4.01, 4.87, 5.41, 5.52, 5.38, 5.43, 5.59, 7.15, 8.84, 10.1, 10.38, 10.38, 9.86, 9.18, 6.94, 2.68, 2.53, 3.55, 5.0, 6.01, 4.75, 1.26, -0.45, -1.26, -1.79, -2.21, -1.33, -0.66, -0.63, -0.63, -0.0, -0.0, 0.73, 1.27, 1.27, 9.47, 9.47, 9.47, 9.84, 10.13, 10.13, 10.13, 10.13, 9.22, 8.86, 8.2, 8.2, 8.85, 8.86, 8.56, 7.9, 6.28, 4.74, 4.37, 4.84, 6.28, 6.8, 6.1, 7.81, 6.79, 5.64, 2.24, -0.89, -1.79, 0.0, 0.0, 0.8, -0.0, 0.95, 2.0, 2.12, 2.23, 3.16, 3.48, 4.84, 5.43, 5.43, 5.75, 6.79, 6.14, 4.85, 4.24, 3.72, 3.79, 4.11, 4.81, 5.43, 4.95, 3.27, 2.4, 2.31, 3.15, 4.01, 1.34, -0.85, -0.0, 2.34, 3.11, 3.19, 3.11, 3.04, 3.82, 4.13, 4.83, 5.82, 7.01, 8.05, 8.48, 9.03, 8.3, 8.05, 7.03, 3.74, 4.0, 4.56, 4.65, 5.43, 5.82, 6.08, 5.69, 4.24, 2.24, 0.99, -0.0, -0.63, -0.72, -0.7, -0.67, -0.0, -0.0, 0.7, 1.41, 1.23, 8.81, 9.47, 9.47, 9.84, 10.13, 10.13, 9.84, 9.84, 9.22, 8.86, 8.58, 8.58, 8.58, 9.21, 9.8, 9.66, 8.43, 6.8, 6.79, 7.4, 8.33, 9.77, 10.27, 10.28, 9.83, 9.39, 5.81, 0.89, -2.17, -2.0, -0.0, 1.0, 1.58, 2.0, 1.58, 2.6, 3.22, 3.84, 3.84, 4.84, 5.2, 5.34, 5.16, 4.85, 3.13, 1.79, 1.9, 2.23, 2.23, 2.84, 3.48, 3.07, 2.4, 0.82, -0.0, 2.49, 3.68, 4.74, 1.6, -1.55, -0.75, 1.58, 3.19, 2.34, 1.54, 1.54, 2.19, 3.16, 3.8, 5.1, 6.68, 7.42, 6.26, 6.08, 6.39, 5.43, 2.86, 3.58, 5.06, 6.32, 6.68, 6.07, 6.25, 6.4, 6.44, 6.4, 6.28, 5.05, 1.41, -0.0, -0.67, -0.72, -0.67, -0.0, -0.0, 0.73, 0.66, 1.41, 8.81, 9.2, 9.47, 9.47, 10.13, 10.13, 10.13, 9.84, 9.22, 8.86, 8.86, 8.86, 8.86, 9.21, 10.12, 10.06, 9.86, 9.35, 9.01, 8.79, 9.43, 10.47, 11.05, 11.57, 11.61, 11.61, 10.27, 5.79, 0.89, -0.0, -0.0, 1.9, 3.2, 2.6, 3.2, 2.53, 2.21, 3.16, 3.84, 4.4, 5.09, 5.31, 4.47, 6.71, 5.36, 3.48, 1.66, 0.99, 1.0, 2.21, 2.53, 2.53, 1.4, -0.0, -0.0, 1.74, 2.8, 5.2, 5.36, -0.0, -0.81, 1.09, 2.33, 2.23, 1.54, 1.6, 0.77, 1.49, 3.35, 5.59, 7.27, 6.39, 3.58, 2.2, 1.55, 2.53, 1.6, 5.06, 7.35, 8.03, 7.69, 7.6, 7.56, 7.98, 6.54, 6.94, 6.94, 5.05, 2.48, 0.66, -0.0, -0.0, -0.0, -0.0, -0.0, 0.7, 0.66, 1.41, 8.81, 9.2, 9.2, 9.47, 10.13, 10.13, 10.13, 9.84, 9.22, 9.21, 8.86, 8.86, 8.86, 9.5, 9.5, 10.09, 10.59, 10.41, 10.55, 10.4, 10.21, 10.91, 11.28, 11.84, 11.95, 12.02, 12.02, 9.77, 5.79, 3.58, 2.91, 2.91, 4.66, 4.66, 4.09, 3.79, 3.76, 3.07, 5.36, 4.66, 5.31, 7.15, 6.71, 6.26, 4.8, 2.6, 1.23, 1.3, 2.73, 0.8, 1.6, 1.6, 1.58, 0.8, 1.0, 1.26, 2.24, 5.59, 8.49, 5.59, 1.65, 1.1, 2.12, 3.22, 2.32, 2.6, 1.3, 2.4, 4.11, 5.75, 5.82, 3.22, 0.0, -0.85, 0.0, 2.68, 5.3, 7.97, 8.65, 9.3, 8.63, 8.4, 8.19, 7.76, 6.55, 6.51, 6.28, 4.4, 3.38, 1.6, -0.0, -0.0, -0.0, -0.0, -0.0, 0.66, 1.41, 1.41, 8.81, 8.81, 9.2, 9.47, 10.13, 10.13, 10.13, 10.13, 9.49, 9.5, 8.86, 8.59, 8.87, 9.21, 9.19, 9.77, 10.06, 10.59, 10.96, 11.36, 11.41, 11.62, 11.81, 11.74, 11.86, 11.95, 12.06, 11.18, 9.39, 7.58, 6.68, 5.79, 5.33, 6.26, 5.64, 3.49, 4.11, 3.79, 5.6, 6.14, 4.92, 4.92, 6.71, 5.4, 4.11, 2.6, 1.14, 1.3, 2.98, 3.79, 4.09, 1.86, 2.23, 2.23, 1.9, 2.12, 3.13, 5.7, 7.6, 7.07, 5.3, 5.44, 4.75, 5.59, 3.35, 3.39, 3.6, 2.4, 3.35, 3.79, 2.98, 0.0, -2.6, -0.45, 1.6, 4.71, 7.52, 9.23, 9.92, 9.67, 9.27, 8.55, 7.35, 6.7, 6.28, 5.75, 5.16, 3.49, 3.11, 2.47, 1.41, -0.0, -0.0, -0.0, 0.72, 1.27, 2.0, 2.0, 8.81, 8.81, 9.48, 9.48, 9.75, 10.13, 10.13, 10.13, 9.84, 9.5, 9.21, 8.87, 8.87, 9.21, 9.19, 9.17, 9.72, 10.23, 10.7, 11.36, 11.6, 11.92, 11.87, 12.18, 11.95, 12.5, 12.52, 12.06, 11.57, 10.71, 9.39, 8.05, 6.71, 7.6, 4.92, 4.66, 4.22, 3.35, 3.39, 5.81, 6.26, 4.02, 5.2, 2.53, 3.49, 2.6, 2.6, 2.6, 3.49, 5.01, 5.01, 5.01, 5.01, 5.75, 5.75, 5.75, 6.79, 7.52, 7.81, 8.0, 7.81, 6.87, 6.7, 6.4, 7.06, 4.85, 3.58, 1.79, 3.2, 1.6, 1.34, 0.0, -0.63, 1.58, 4.65, 6.14, 8.53, 10.86, 11.9, 10.9, 9.67, 8.05, 6.4, 5.05, 5.43, 4.81, 3.45, 2.2, 3.33, 2.4, 1.41, -0.0, -0.0, -0.0, 0.66, 1.27, 1.8, 1.8, 8.81, 9.09, 9.48, 9.48, 9.48, 9.84, 9.84, 10.13, 9.84, 9.5, 9.21, 8.87, 8.87, 8.87, 8.87, 9.46, 9.72, 10.59, 10.51, 11.22, 11.82, 12.11, 11.87, 11.84, 12.06, 12.52, 12.52, 12.07, 12.07, 11.18, 9.83, 8.05, 6.71, 5.79, 5.34, 5.36, 4.47, 3.58, 3.13, 2.68, 2.24, 2.0, 1.6, 1.9, 4.11, 3.76, 3.76, 3.76, 5.01, 5.75, 6.13, 5.75, 5.75, 5.75, 5.59, 5.93, 6.7, 6.7, 6.87, 7.21, 7.64, 7.76, 7.6, 7.63, 7.52, 5.75, 4.92, 3.13, 3.35, 4.09, 5.7, 5.36, 6.79, 8.24, 8.32, 7.68, 9.04, 10.9, 12.08, 11.26, 9.84, 8.63, 6.64, 4.73, 4.11, 4.29, 2.79, 3.33, 3.9, 2.88, 2.4, 0.66, -0.0, -0.0, 0.66, 1.33, 2.66, 2.66, 8.83, 9.09, 9.09, 9.48, 9.48, 9.48, 9.84, 10.13, 9.84, 9.84, 9.21, 9.21, 8.59, 8.87, 8.58, 9.8, 9.46, 9.72, 10.23, 11.08, 12.33, 13.02, 12.11, 11.87, 10.93, 11.4, 9.24, 10.93, 10.93, 8.87, 6.68, 4.92, 4.02, 4.47, 4.8, 5.09, 5.31, 5.08, 5.75, 4.34, 4.02, 4.38, 4.24, 5.2, 5.01, 4.74, 5.01, 5.01, 5.01, 5.75, 6.13, 6.13, 6.13, 5.59, 4.75, 5.69, 6.28, 6.52, 6.87, 7.64, 7.76, 7.81, 8.17, 6.07, 6.21, 5.81, 5.36, 5.75, 6.07, 6.61, 8.94, 11.66, 14.68, 14.83, 13.07, 10.45, 9.36, 10.25, 11.52, 10.93, 8.63, 7.21, 5.05, 4.73, 3.79, 2.79, 2.3, 2.98, 4.16, 3.38, 2.73, 1.41, 0.59, 0.66, 1.27, 2.07, 2.51, 2.51, 8.83, 8.83, 8.83, 9.48, 9.48, 9.48, 9.48, 10.13, 9.84, 10.13, 9.21, 9.21, 8.87, 8.58, 8.58, 8.56, 8.85, 8.24, 8.93, 9.67, 11.83, 12.79, 12.28, 11.28, 10.28, 10.23, 10.15, 8.51, 7.81, 5.7, 3.13, 2.17, 2.12, 2.17, 3.13, 4.11, 4.93, 5.37, 5.81, 6.16, 6.71, 6.68, 6.47, 5.81, 5.08, 5.75, 5.6, 5.6, 5.81, 5.81, 6.23, 6.23, 5.36, 4.47, 3.07, 4.11, 6.01, 5.09, 5.77, 7.76, 7.4, 7.74, 7.97, 8.05, 5.81, 4.92, 5.36, 5.81, 6.21, 7.47, 9.6, 12.15, 14.68, 16.05, 15.57, 12.94, 10.75, 10.0, 10.02, 9.81, 8.94, 6.98, 5.34, 3.84, 3.07, 2.73, 2.98, 2.66, 2.73, 2.73, 2.07, 2.0, 1.27, 0.59, 1.27, 2.07, 2.84, 2.84, 8.83, 8.83, 8.83, 9.21, 9.21, 9.21, 9.21, 9.49, 9.84, 10.13, 9.84, 9.21, 8.87, 8.58, 8.87, 9.17, 8.85, 7.93, 7.32, 9.23, 10.9, 11.07, 11.44, 11.07, 10.87, 10.41, 9.88, 8.51, 7.09, 5.33, 4.02, 3.98, 3.39, 2.63, 2.24, 2.91, 3.72, 4.55, 5.31, 6.04, 6.68, 6.71, 6.61, 6.04, 4.9, 5.81, 5.6, 5.81, 5.81, 6.14, 6.14, 5.01, 4.02, 3.68, 4.75, 3.35, 4.74, 5.06, 6.52, 6.8, 7.21, 7.5, 7.52, 7.6, 6.26, 5.81, 3.95, 4.46, 4.95, 5.89, 7.59, 10.91, 13.23, 13.84, 13.32, 12.56, 10.18, 9.23, 8.3, 7.6, 7.56, 6.51, 4.46, 3.48, 4.01, 2.07, 2.0, 2.66, 2.66, 2.79, 1.84, 2.07, 2.0, 1.8, 1.84, 2.51, 2.84, 2.84, 8.83, 8.83, 8.83, 8.83, 9.21, 9.49, 9.49, 9.49, 9.49, 10.13, 9.84, 9.5, 9.5, 8.87, 8.58, 9.17, 8.85, 8.53, 8.56, 9.77, 10.3, 10.51, 9.86, 10.23, 10.7, 11.22, 10.91, 10.18, 9.23, 8.03, 7.15, 7.15, 6.68, 5.36, 3.58, 2.68, 2.68, 3.35, 4.27, 4.9, 5.7, 5.81, 5.81, 5.7, 5.09, 4.4, 5.81, 5.7, 5.7, 5.7, 5.2, 3.49, 3.45, 3.45, 3.68, 4.75, 3.9, 4.83, 6.87, 6.52, 5.34, 5.59, 6.21, 6.71, 6.26, 5.31, 3.35, 1.72, 2.26, 2.4, 3.35, 6.98, 8.67, 5.77, 7.02, 7.59, 7.8, 7.09, 6.51, 5.72, 4.87, 4.0, 3.16, 2.3, 2.2, 2.2, 1.55, 2.0, 2.66, 2.48, 2.07, 1.8, 2.48, 2.51, 2.23, 2.84, 2.53, 2.53, 8.83, 8.83, 8.83, 8.83, 9.49, 9.49, 9.49, 9.49, 9.49, 9.5, 9.84, 9.5, 9.21, 9.19, 8.58, 8.87, 9.17, 9.13, 9.46, 10.65, 11.16, 10.96, 9.76, 9.63, 10.02, 10.55, 10.91, 10.91, 10.47, 9.68, 9.37, 8.92, 8.49, 7.6, 6.26, 4.44, 3.32, 3.07, 3.72, 4.27, 4.6, 4.89, 4.92, 4.89, 4.77, 4.11, 5.7, 5.7, 5.2, 4.8, 4.11, 3.76, 3.45, 3.76, 3.45, 3.45, 2.6, 3.9, 5.37, 5.43, 5.2, 5.16, 5.75, 5.75, 5.09, 3.35, 2.51, 1.55, 1.52, 2.29, 2.48, 2.53, 0.89, 1.79, 0.0, 2.29, 2.9, 3.09, 1.94, 2.4, 2.6, 1.9, 1.4, 1.33, 1.49, 1.27, 1.49, 1.49, 2.3, 2.79, 2.07, 2.98, 2.51, 2.51, 2.84, 3.14, 3.14, 3.14, 8.57, 8.57, 8.85, 8.85, 9.49, 9.49, 9.22, 9.22, 9.22, 9.5, 9.5, 9.5, 9.21, 9.19, 8.58, 8.87, 9.17, 9.46, 9.72, 10.3, 10.8, 11.34, 10.83, 10.16, 9.88, 9.88, 10.21, 10.42, 10.18, 10.34, 10.01, 9.68, 9.32, 8.92, 7.97, 6.61, 5.24, 4.19, 3.88, 4.6, 4.77, 4.89, 4.92, 4.44, 4.44, 3.87, 5.7, 5.7, 5.64, 5.2, 4.43, 3.76, 3.49, 3.49, 2.6, 2.8, 2.07, 2.53, 4.11, 5.37, 5.15, 4.8, 4.66, 4.46, 4.11, 3.2, 2.4, 3.52, 3.2, 2.98, 3.2, 5.81, 5.81, 4.24, 4.8, 3.82, 3.58, 3.2, 3.58, 2.23, 1.58, 1.24, 0.54, 0.53, 0.61, 0.61, 1.33, 1.33, 1.84, 2.07, 2.41, 2.15, 2.79, 3.49, 2.53, 3.14, 3.14, 3.14, 8.85, 8.85, 8.85, 8.85, 8.85, 9.22, 9.22, 9.22, 9.5, 9.5, 9.21, 9.5, 9.21, 9.5, 9.19, 9.17, 9.17, 9.46, 9.72, 10.3, 10.59, 11.07, 10.96, 11.08, 10.4, 9.88, 9.71, 9.51, 9.7, 9.43, 9.43, 9.11, 9.23, 9.23, 8.79, 8.33, 7.4, 6.36, 5.81, 5.57, 5.7, 5.34, 4.92, 4.92, 4.44, 4.44, 4.92, 5.34, 5.7, 5.57, 5.31, 5.37, 3.79, 2.98, 2.4, 2.6, 2.98, 1.49, 1.58, 3.79, 5.93, 5.82, 4.8, 4.19, 3.11, 2.51, 2.4, 3.09, 3.4, 3.83, 5.36, 7.21, 10.28, 11.4, 11.62, 11.34, 10.38, 8.4, 7.21, 1.86, 1.26, 0.6, -0.0, -0.0, -0.0, -0.0, 0.61, 0.61, 1.16, 2.07, 2.79, 2.51, 2.21, 2.21, 3.14, 2.79, 3.14, 3.14, 8.46, 8.46, 8.85, 8.85, 8.85, 9.22, 9.22, 9.5, 9.21, 9.21, 9.21, 9.5, 9.21, 9.5, 9.19, 9.17, 9.17, 9.46, 9.72, 10.06, 10.59, 11.07, 10.7, 11.22, 11.08, 10.4, 10.21, 9.92, 9.21, 9.21, 8.96, 9.07, 8.67, 8.67, 8.79, 8.67, 8.64, 8.17, 7.74, 7.4, 7.06, 6.23, 5.81, 5.36, 5.36, 4.92, 5.36, 5.36, 5.78, 5.7, 5.24, 4.34, 4.8, 2.73, 1.3, 2.4, 3.79, 3.48, 2.73, 1.58, 4.8, 6.8, 5.82, 4.11, 3.22, 2.35, 2.26, 2.35, 4.29, 4.84, 5.31, 7.15, 8.94, 11.52, 11.87, 12.39, 12.39, 10.1, 3.51, 1.2, 0.63, -0.0, -1.24, -1.4, -0.66, -0.0, 0.66, 0.7, 1.33, 1.33, 2.07, 3.15, 2.53, 2.5, 2.5, 3.07, 3.07, 3.07, 8.2, 8.2, 8.58, 8.85, 8.85, 9.22, 9.5, 9.5, 9.21, 8.86, 8.87, 9.21, 9.21, 9.5, 9.19, 9.48, 9.17, 9.46, 9.72, 10.06, 10.59, 10.59, 10.7, 10.96, 10.83, 10.55, 10.4, 10.21, 9.51, 9.21, 8.96, 8.96, 8.96, 8.96, 8.64, 8.64, 8.64, 8.64, 8.64, 8.33, 7.97, 7.58, 7.13, 6.26, 5.81, 5.81, 5.81, 5.81, 5.81, 5.81, 5.36, 4.47, 3.53, 1.9, 1.8, 1.4, 3.48, 2.73, 1.49, 1.74, 3.82, 5.75, 6.23, 4.11, 3.68, 2.35, 2.47, 4.43, 4.84, 5.75, 6.21, 7.15, 8.01, 8.94, 9.33, 9.84, 11.62, 8.06, 1.79, 0.0, 0.0, -0.63, -1.24, -2.15, -1.27, -0.0, 0.73, 1.27, 1.33, 1.16, 1.84, 2.84, 3.49, 2.86, 2.68, 3.32, 3.32, 3.32, 8.2, 8.2, 8.58, 8.86, 8.86, 8.86, 9.21, 9.21, 8.86, 8.87, 8.87, 8.87, 9.21, 9.5, 9.19, 9.48, 9.48, 9.46, 9.72, 9.72, 10.23, 10.23, 10.51, 10.41, 10.68, 10.55, 10.4, 10.4, 10.21, 10.0, 10.12, 9.7, 9.43, 9.39, 8.96, 9.11, 8.64, 8.64, 8.77, 8.33, 7.87, 7.51, 6.68, 6.71, 6.26, 6.26, 6.26, 6.26, 6.26, 5.81, 5.36, 4.02, 3.13, 1.9, 1.16, 1.6, 3.48, 2.73, 1.49, 1.4, 1.86, 5.59, 6.02, 4.84, 3.11, 3.4, 4.81, 5.2, 5.75, 6.26, 7.15, 7.6, 8.01, 7.56, 6.71, 8.05, 10.73, 8.01, 1.79, 0.0, 0.0, 0.63, 0.54, -0.0, -0.0, -0.0, 0.72, 1.27, 1.33, 1.88, 1.88, 2.5, 3.49, 3.6, 3.32, 3.32, 3.32, 3.32, 8.49, 8.49, 8.86, 8.86, 8.86, 8.86, 9.21, 9.21, 8.86, 8.87, 8.87, 8.87, 8.87, 9.5, 9.19, 9.48, 9.48, 9.77, 9.72, 9.72, 10.01, 10.23, 10.51, 10.41, 10.41, 10.13, 10.02, 10.27, 10.0, 10.21, 10.0, 10.12, 9.7, 9.86, 9.43, 9.39, 9.11, 9.11, 8.64, 8.33, 7.87, 7.51, 6.61, 6.65, 6.26, 6.26, 6.26, 6.23, 5.7, 5.7, 4.77, 3.53, 2.68, 2.15, 1.88, 1.88, 3.16, 2.48, 1.8, 1.49, 2.12, 4.85, 5.09, 3.48, 2.53, 4.43, 4.74, 5.21, 4.85, 5.31, 6.21, 7.56, 8.46, 8.14, 8.24, 9.65, 9.49, 8.91, 6.71, 4.02, 2.24, 3.09, 4.19, 4.29, 2.73, 0.76, 0.7, 1.84, 2.53, 2.5, 2.4, 2.91, 3.51, 3.82, 3.39, 3.32, 3.53, 3.53, 8.22, 8.22, 8.22, 8.86, 8.86, 8.86, 8.86, 9.16, 8.87, 8.87, 8.87, 8.59, 8.87, 9.19, 9.19, 9.19, 9.77, 9.77, 10.06, 9.72, 10.01, 10.01, 9.94, 9.86, 9.86, 9.76, 10.02, 9.63, 9.88, 10.11, 10.21, 10.0, 10.18, 10.12, 9.7, 9.86, 9.39, 8.96, 9.11, 8.64, 8.3, 7.4, 6.94, 6.16, 5.78, 6.26, 7.15, 5.78, 4.77, 3.82, 3.07, 3.09, 2.91, 2.79, 2.53, 2.21, 1.61, 1.61, 1.9, 2.98, 2.54, 4.38, 3.83, 3.16, 3.84, 4.19, 4.11, 4.74, 4.19, 4.02, 4.8, 6.65, 8.49, 9.39, 9.33, 9.84, 10.15, 9.33, 9.81, 10.28, 8.49, 6.26, 6.61, 7.81, 7.23, 4.75, 1.88, 3.45, 3.74, 3.04, 2.6, 2.68, 3.97, 3.51, 3.53, 3.53, 3.53, 3.53, 8.22, 8.22, 8.22, 8.59, 8.59, 8.87, 8.87, 8.87, 8.87, 8.87, 8.87, 8.59, 8.87, 8.87, 9.19, 9.19, 9.48, 9.77, 10.06, 9.72, 10.01, 9.94, 9.94, 9.86, 9.5, 9.76, 9.21, 9.48, 9.48, 10.11, 10.11, 10.21, 10.42, 10.0, 10.18, 9.7, 9.7, 9.39, 8.96, 8.64, 8.21, 7.74, 7.4, 6.47, 5.99, 6.51, 6.66, 5.78, 4.92, 4.47, 4.44, 4.77, 4.6, 3.35, 2.79, 2.21, 2.5, 1.9, 2.23, 2.6, 3.47, 3.2, 3.83, 3.83, 4.15, 4.15, 3.2, 1.58, 3.16, 3.39, 4.02, 4.47, 6.7, 9.83, 11.6, 10.93, 10.15, 10.15, 9.83, 11.52, 12.07, 10.73, 7.43, 8.06, 9.51, 7.6, 4.4, 3.07, 4.47, 3.58, 2.68, 2.68, 3.13, 3.58, 3.58, 3.13, 3.13, 3.13, 8.22, 8.22, 8.22, 8.59, 8.87, 8.87, 8.87, 8.87, 8.87, 8.87, 8.59, 8.87, 8.87, 8.87, 9.19, 9.48, 9.48, 9.77, 10.06, 9.72, 10.01, 9.94, 9.94, 9.86, 9.5, 9.58, 9.21, 9.1, 9.65, 9.2, 9.48, 9.88, 10.21, 10.21, 10.42, 10.0, 9.7, 9.21, 8.96, 8.91, 8.48, 8.17, 7.69, 6.79, 6.79, 6.79, 6.94, 7.13, 6.71, 6.23, 6.16, 5.7, 5.09, 4.19, 3.6, 3.07, 2.5, 2.4, 2.4, 2.4, 3.2, 3.6, 3.74, 3.04, 3.51, 3.04, 2.68, 1.79, 2.24, 4.92, 4.85, 4.22, 4.4, 8.17, 13.65, 13.86, 10.45, 8.0, 8.4, 9.28, 10.73, 10.63, 10.52, 8.53, 9.86, 9.43, 6.97, 4.89, 4.02, 4.47, 2.68, 2.68, 3.13, 3.13, 3.13, 3.13, 2.68, 2.68, 8.22, 8.22, 8.22, 8.22, 8.87, 8.87, 8.87, 8.87, 8.87, 8.59, 8.87, 8.87, 8.87, 8.87, 9.19, 9.48, 9.48, 9.17, 9.72, 9.72, 10.01, 9.66, 9.94, 9.86, 9.5, 9.58, 9.21, 9.1, 8.55, 9.65, 8.43, 8.96, 9.48, 9.88, 10.11, 9.92, 9.92, 9.7, 9.21, 8.79, 8.48, 8.0, 7.58, 7.26, 7.21, 6.79, 6.97, 7.13, 7.15, 7.15, 6.71, 5.78, 5.33, 4.34, 3.87, 3.39, 3.07, 2.91, 2.4, 2.4, 2.5, 3.74, 4.8, 2.6, 3.04, 3.04, 3.13, 3.58, 2.68, 4.02, 5.16, 4.4, 4.66, 7.6, 12.96, 15.65, 11.62, 7.15, 5.36, 8.02, 10.63, 11.89, 12.33, 12.33, 10.14, 10.22, 8.48, 6.26, 4.92, 3.97, 2.68, 2.24, 3.58, 3.13, 3.13, 3.13, 2.17, 2.17, 7.83, 7.83, 8.22, 8.22, 8.87, 8.87, 8.87, 8.87, 8.59, 8.87, 8.87, 8.87, 8.87, 8.58, 8.87, 9.17, 9.17, 9.17, 9.46, 9.72, 10.01, 9.66, 9.94, 9.86, 9.5, 9.58, 9.21, 8.84, 9.21, 9.1, 8.96, 8.96, 8.96, 9.35, 9.48, 9.71, 9.71, 9.51, 9.42, 9.21, 8.72, 8.42, 8.0, 7.51, 7.26, 7.26, 7.4, 7.4, 7.07, 7.13, 6.71, 5.81, 5.36, 4.88, 4.43, 3.98, 3.53, 3.07, 2.4, 2.4, 3.72, 3.72, 4.09, 4.8, 3.2, 3.47, 3.47, 4.02, 2.24, 3.13, 5.09, 4.98, 5.81, 8.63, 12.58, 15.63, 14.22, 11.66, 11.09, 12.66, 13.79, 13.39, 12.96, 12.52, 12.07, 9.39, 8.94, 7.15, 6.11, 3.87, 3.13, 2.6, 3.51, 4.47, 3.13, 2.68, 1.9, 1.9, 7.57, 7.57, 7.96, 7.96, 8.23, 8.59, 8.59, 8.59, 8.87, 8.87, 8.87, 8.87, 8.58, 8.58, 8.87, 9.17, 9.17, 9.46, 9.46, 9.46, 9.42, 9.66, 9.94, 9.59, 9.5, 9.3, 9.21, 9.21, 9.21, 9.48, 9.35, 9.35, 8.96, 9.2, 9.2, 9.2, 9.2, 9.2, 9.2, 9.01, 8.51, 8.3, 7.81, 7.51, 7.51, 7.26, 7.26, 7.4, 7.4, 7.06, 6.68, 6.26, 5.36, 4.92, 4.47, 4.02, 3.53, 2.91, 2.91, 2.68, 2.5, 4.09, 4.09, 4.46, 4.8, 5.2, 3.47, 3.47, 3.95, 4.47, 3.97, 4.47, 7.15, 9.7, 11.4, 12.96, 14.4, 14.17, 14.68, 15.31, 14.29, 13.84, 11.99, 11.09, 11.53, 8.92, 8.47, 7.92, 5.2, 4.02, 3.6, 3.6, 4.24, 4.41, 3.07, 2.21, 1.16, 1.16, 7.57, 7.57, 7.57, 7.96, 8.23, 8.23, 8.59, 8.87, 8.87, 8.87, 8.87, 8.58, 8.58, 8.87, 8.87, 8.87, 9.17, 9.46, 9.13, 9.13, 9.42, 9.42, 9.37, 9.37, 9.66, 9.3, 9.21, 9.21, 9.21, 9.48, 9.63, 9.88, 9.48, 9.35, 9.2, 8.96, 8.96, 8.96, 9.2, 8.8, 8.91, 8.0, 7.81, 7.51, 7.51, 7.51, 7.69, 7.69, 7.26, 6.94, 6.61, 6.23, 5.78, 5.36, 4.47, 4.02, 3.53, 3.39, 3.32, 2.91, 2.91, 2.68, 4.24, 2.54, 3.74, 6.14, 3.95, 4.41, 4.92, 4.92, 4.47, 4.92, 7.6, 10.28, 11.62, 10.73, 11.52, 13.05, 15.13, 16.4, 15.18, 11.62, 8.91, 7.92, 7.92, 7.92, 7.45, 5.2, 4.73, 4.43, 4.37, 4.09, 4.93, 4.41, 2.8, 1.9, 1.61, 1.61, 7.57, 7.57, 7.57, 7.57, 8.23, 8.23, 8.59, 8.87, 8.87, 8.87, 8.58, 8.58, 8.87, 8.87, 8.87, 8.87, 8.87, 9.13, 9.13, 9.13, 9.42, 9.08, 9.37, 9.37, 9.37, 9.3, 9.3, 9.21, 9.21, 9.21, 9.48, 9.63, 9.63, 9.48, 9.35, 8.96, 8.82, 8.43, 8.43, 8.68, 8.68, 7.76, 7.48, 7.89, 7.01, 7.51, 7.51, 7.51, 7.51, 7.21, 6.51, 6.16, 5.7, 5.33, 4.44, 4.02, 3.53, 3.39, 3.39, 3.39, 2.91, 2.91, 4.24, 2.12, 3.47, 6.14, 4.02, 4.02, 4.92, 4.92, 4.92, 5.36, 6.61, 10.96, 11.96, 10.7, 9.26, 11.06, 14.22, 15.63, 14.3, 11.6, 8.49, 6.71, 5.81, 5.36, 5.78, 4.3, 4.47, 5.44, 6.25, 5.6, 4.73, 4.66, 2.23, 1.9, 1.9, 1.9, 6.92, 6.92, 7.32, 7.59, 7.59, 7.96, 8.24, 8.58, 8.58, 8.58, 8.58, 8.87, 8.87, 8.87, 8.87, 8.87, 8.56, 8.85, 8.85, 8.85, 9.08, 9.08, 9.37, 9.37, 9.37, 9.3, 9.3, 9.3, 9.58, 9.21, 9.21, 9.21, 9.63, 9.63, 9.63, 9.35, 8.96, 8.82, 8.43, 8.43, 7.9, 7.76, 7.07, 7.42, 7.01, 7.51, 7.71, 7.71, 7.31, 7.01, 6.72, 6.04, 5.57, 5.24, 4.44, 4.02, 3.98, 3.87, 3.87, 3.39, 3.39, 2.91, 4.24, 3.47, 4.47, 5.81, 5.81, 4.47, 4.47, 4.92, 4.92, 4.02, 4.82, 9.97, 13.99, 12.3, 8.33, 9.27, 12.66, 14.13, 13.25, 11.62, 10.26, 8.46, 8.02, 7.57, 6.22, 4.47, 4.43, 6.13, 7.06, 6.85, 4.77, 4.66, 2.23, 1.9, 2.4, 1.9, 6.92, 6.92, 7.59, 7.59, 7.59, 7.59, 8.24, 8.24, 8.58, 8.58, 8.87, 8.87, 8.87, 8.87, 8.87, 8.56, 8.85, 8.85, 8.85, 8.82, 8.82, 8.82, 9.12, 9.37, 9.02, 9.02, 9.3, 9.3, 9.3, 9.58, 9.58, 9.21, 9.21, 9.38, 9.48, 9.48, 9.1, 8.96, 8.82, 8.43, 7.9, 7.35, 7.07, 6.41, 7.42, 7.31, 7.48, 6.95, 6.41, 6.28, 6.1, 5.6, 5.31, 5.09, 4.44, 4.47, 4.43, 4.43, 3.98, 3.98, 3.53, 3.53, 3.07, 4.92, 5.36, 5.36, 4.47, 4.02, 4.92, 4.92, 4.92, 4.92, 4.47, 6.61, 10.8, 12.51, 10.43, 6.98, 8.05, 8.93, 8.48, 8.46, 9.83, 9.74, 9.15, 8.97, 8.48, 7.28, 6.36, 7.71, 7.76, 7.45, 4.77, 4.66, 2.4, 2.23, 2.4, 2.4, 7.19, 7.19, 7.19, 7.59, 7.59, 7.59, 7.87, 8.24, 8.24, 8.24, 8.87, 8.87, 8.87, 8.87, 8.56, 8.85, 8.85, 8.85, 8.53, 8.82, 8.82, 8.82, 8.5, 8.78, 9.02, 9.02, 9.02, 9.3, 9.3, 9.5, 9.76, 9.58, 9.58, 9.21, 9.21, 9.48, 9.1, 9.1, 8.82, 8.43, 7.9, 7.35, 6.79, 6.79, 7.07, 8.0, 7.2, 6.28, 5.75, 5.75, 5.6, 5.47, 4.9, 4.77, 4.47, 4.47, 4.88, 4.44, 4.44, 3.98, 3.98, 3.53, 4.47, 4.92, 5.36, 5.81, 4.47, 6.26, 4.47, 4.92, 5.29, 4.92, 4.47, 4.47, 6.14, 9.3, 10.91, 9.2, 4.87, 5.29, 4.02, 5.36, 7.01, 9.58, 9.89, 9.4, 7.56, 7.28, 7.76, 7.92, 8.01, 7.12, 5.32, 4.87, 2.6, 2.6, 1.86, 1.86, 6.94, 6.94, 6.94, 7.33, 7.33, 7.33, 7.6, 7.6, 7.96, 8.24, 8.56, 8.56, 8.56, 8.56, 8.85, 8.85, 8.85, 8.85, 8.53, 8.82, 8.82, 8.5, 8.5, 8.78, 9.02, 9.02, 9.02, 9.37, 9.66, 9.86, 9.5, 9.5, 9.58, 9.58, 9.21, 9.21, 8.84, 8.93, 8.55, 8.55, 8.27, 7.9, 7.35, 7.35, 7.35, 7.76, 7.31, 6.51, 6.0, 5.6, 5.6, 5.4, 5.09, 5.33, 4.92, 4.92, 4.89, 4.88, 4.44, 4.44, 3.98, 3.53, 3.53, 4.92, 5.36, 5.64, 5.7, 5.81, 3.95, 3.47, 5.29, 5.36, 4.92, 4.66, 4.8, 5.81, 9.58, 12.29, 11.34, 9.2, 8.49, 8.4, 9.68, 11.09, 11.28, 10.02, 7.01, 7.01, 7.56, 8.01, 8.05, 7.6, 5.36, 4.02, 1.86, 0.65, 0.65, 0.65, 6.94, 6.94, 6.94, 6.94, 7.33, 7.6, 7.6, 7.6, 7.6, 8.24, 8.24, 8.56, 8.56, 8.85, 8.85, 8.85, 8.85, 8.85, 8.53, 8.82, 8.82, 8.5, 8.5, 8.78, 8.78, 9.02, 9.37, 9.37, 9.37, 9.37, 9.66, 9.3, 9.3, 9.3, 9.21, 9.21, 8.65, 8.65, 8.55, 8.55, 8.0, 7.9, 7.72, 7.35, 7.35, 7.76, 7.71, 7.09, 6.79, 6.3, 6.3, 6.04, 6.16, 5.78, 5.81, 5.36, 5.36, 4.92, 4.92, 4.47, 4.47, 4.02, 3.58, 4.92, 5.36, 5.64, 6.14, 5.7, 4.15, 4.4, 5.09, 5.36, 5.31, 5.34, 5.82, 6.07, 8.46, 11.4, 13.23, 13.1, 12.89, 12.97, 13.33, 12.92, 11.58, 10.05, 7.48, 7.12, 7.15, 8.05, 7.6, 7.15, 4.92, 2.17, 0.65, -0.0, -0.0, -0.0, 6.94, 6.94, 6.94, 7.22, 7.6, 7.6, 7.6, 7.6, 7.6, 7.6, 8.24, 8.24, 8.56, 8.85, 8.85, 8.85, 8.85, 8.53, 8.53, 8.82, 8.5, 8.5, 8.5, 8.78, 8.78, 9.37, 9.37, 9.37, 9.37, 9.37, 9.37, 9.66, 9.3, 9.3, 8.94, 9.21, 8.65, 8.65, 8.55, 8.37, 8.0, 7.9, 7.9, 7.9, 7.61, 7.87, 7.81, 7.71, 7.51, 7.26, 6.94, 6.94, 6.61, 6.23, 6.26, 5.36, 5.36, 5.36, 4.92, 4.92, 4.47, 4.02, 4.02, 3.58, 5.36, 5.2, 5.7, 4.66, 4.8, 5.09, 4.47, 5.36, 5.59, 5.75, 6.4, 7.21, 8.36, 10.25, 11.66, 11.83, 12.52, 14.24, 15.44, 14.53, 12.01, 10.84, 10.52, 8.91, 8.05, 7.6, 10.73, 4.43, 2.68, 0.71, -0.0, -0.72, -0.72, -0.72, 6.96, 6.96, 6.96, 6.96, 6.96, 7.33, 7.33, 7.33, 7.33, 7.61, 7.95, 7.95, 7.95, 8.85, 8.85, 8.85, 8.53, 8.53, 8.82, 8.82, 8.5, 8.5, 8.5, 8.5, 8.78, 9.37, 9.37, 9.37, 9.37, 9.37, 9.37, 9.37, 9.3, 9.3, 8.94, 9.21, 8.65, 8.29, 8.37, 8.0, 8.0, 7.9, 7.9, 8.15, 7.76, 8.0, 7.6, 7.81, 8.0, 7.51, 7.26, 7.4, 7.06, 6.61, 6.23, 5.81, 5.81, 5.36, 5.36, 4.92, 4.92, 4.47, 4.02, 4.02, 4.02, 5.36, 5.81, 4.47, 4.92, 3.95, 5.36, 5.31, 5.75, 6.07, 6.51, 7.11, 8.05, 9.83, 10.16, 9.9, 11.26, 14.07, 15.9, 15.46, 13.64, 12.18, 11.53, 11.18, 9.83, 11.12, 9.11, 3.07, 0.71, -0.0, -0.74, -0.78, -0.78, -0.78, 6.96, 6.96, 6.96, 6.96, 6.96, 6.96, 7.33, 7.33, 7.61, 7.61, 7.61, 7.95, 7.95, 8.24, 8.53, 8.53, 8.53, 8.53, 8.82, 8.82, 8.5, 8.5, 8.5, 8.5, 8.78, 9.37, 9.37, 9.37, 9.37, 9.37, 9.37, 9.02, 9.3, 9.3, 8.94, 9.01, 8.65, 8.29, 8.37, 8.0, 8.0, 7.9, 7.72, 7.61, 7.76, 8.0, 8.0, 7.81, 7.81, 7.51, 7.69, 7.26, 6.94, 6.61, 6.23, 5.81, 5.81, 5.81, 5.36, 5.36, 4.92, 4.47, 4.47, 4.02, 4.02, 5.36, 5.36, 5.81, 6.26, 4.47, 4.41, 5.31, 5.75, 6.21, 6.65, 7.15, 8.05, 9.39, 9.26, 8.4, 9.74, 13.23, 15.61, 15.31, 14.11, 12.18, 10.28, 10.26, 10.16, 6.94, 3.32, 1.26, -0.66, -1.47, -1.52, -1.36, -1.36, -1.36, 6.96, 6.96, 6.96, 6.96, 6.96, 6.96, 7.61, 7.61, 7.61, 7.61, 7.61, 7.61, 7.95, 8.24, 8.24, 8.53, 8.53, 8.82, 8.82, 8.82, 8.5, 8.5, 8.5, 8.5, 8.78, 9.37, 9.37, 9.37, 9.37, 9.37, 9.02, 9.02, 9.3, 8.73, 8.73, 8.65, 8.65, 8.55, 8.0, 8.0, 7.9, 7.72, 7.35, 7.61, 7.61, 8.0, 8.0, 7.81, 7.81, 7.51, 7.51, 7.26, 6.94, 6.51, 6.23, 6.23, 6.26, 5.81, 5.81, 5.36, 5.36, 4.92, 4.47, 4.02, 4.02, 5.36, 5.36, 5.81, 6.26, 5.36, 5.81, 5.81, 6.21, 6.65, 6.66, 7.15, 7.6, 8.05, 8.33, 8.14, 8.82, 11.18, 14.17, 14.49, 14.39, 11.8, 8.94, 7.98, 7.46, 4.73, 1.34, -0.59, -1.35, -1.47, -1.41, -1.41, -1.41, -1.41, 6.96, 6.96, 6.96, 6.7, 6.97, 7.24, 7.61, 7.61, 7.61, 7.61, 7.61, 7.61, 7.61, 8.24, 8.24, 8.24, 8.82, 8.82, 8.82, 8.5, 8.5, 8.5, 8.5, 8.78, 8.78, 9.12, 9.37, 9.37, 9.37, 9.37, 9.02, 9.3, 8.73, 8.73, 8.65, 8.65, 8.29, 8.37, 8.0, 8.27, 7.9, 7.9, 7.61, 7.61, 7.61, 7.48, 7.6, 7.81, 7.81, 7.51, 7.51, 7.26, 6.94, 6.51, 6.68, 6.23, 6.23, 6.26, 5.81, 5.81, 5.36, 4.92, 4.92, 4.47, 4.02, 4.47, 4.92, 5.36, 5.81, 6.26, 6.26, 6.26, 6.26, 6.65, 6.66, 6.71, 6.71, 7.15, 7.42, 7.45, 7.89, 9.11, 10.23, 12.13, 13.45, 12.4, 4.24, 2.84, 2.21, 0.6, -1.2, -2.11, -1.47, -2.2, -1.3, -1.3, -1.3, -1.3, 6.96, 6.96, 6.7, 6.97, 6.97, 6.97, 6.97, 7.61, 7.61, 7.61, 7.61, 7.61, 7.61, 8.24, 7.93, 7.93, 8.5, 8.5, 8.5, 8.5, 8.5, 8.5, 8.5, 8.78, 8.78, 8.78, 9.02, 9.37, 9.02, 9.02, 9.3, 8.73, 8.73, 8.38, 8.65, 8.29, 8.37, 8.0, 8.27, 7.9, 7.9, 8.15, 7.76, 7.61, 7.61, 7.48, 7.48, 7.71, 7.71, 7.31, 7.51, 7.21, 6.79, 6.61, 6.61, 6.68, 6.68, 6.23, 6.26, 5.81, 5.81, 5.36, 4.92, 4.47, 3.98, 4.92, 4.92, 4.92, 5.81, 5.81, 6.26, 6.26, 6.65, 6.65, 6.65, 6.65, 6.71, 6.71, 6.65, 7.11, 7.42, 7.45, 8.3, 10.15, 12.56, 7.98, 1.2, -0.63, -0.57, -1.2, -1.98, -2.66, -2.12, -2.35, -1.41, -1.41, -1.41, -1.41, 6.96, 6.7, 6.97, 6.97, 6.97, 6.97, 6.97, 7.33, 7.33, 7.33, 7.33, 7.33, 7.61, 7.93, 7.93, 7.93, 8.22, 8.5, 8.5, 8.5, 8.5, 8.5, 8.78, 8.78, 8.78, 8.78, 9.02, 9.02, 9.02, 9.3, 8.94, 8.73, 8.38, 8.65, 8.65, 8.29, 8.37, 8.0, 8.27, 7.9, 7.9, 8.15, 8.15, 7.76, 7.76, 8.0, 7.48, 7.48, 7.71, 7.31, 7.09, 7.21, 6.79, 6.94, 7.06, 6.61, 6.68, 6.68, 6.23, 6.23, 5.78, 5.34, 5.33, 4.88, 4.44, 3.98, 4.47, 4.92, 5.36, 5.36, 5.81, 6.26, 6.26, 6.07, 6.51, 6.51, 6.65, 6.26, 6.26, 6.71, 7.11, 7.11, 7.45, 9.26, 12.79, 6.54, -0.0, -2.88, -3.55, -3.55, -2.66, -2.06, -2.04, -2.35, -2.2, -1.52, -1.52, -1.52, 6.97, 6.97, 6.97, 6.97, 6.97, 6.97, 6.97, 7.33, 7.33, 7.33, 7.33, 7.61, 7.61, 7.61, 7.93, 7.93, 8.22, 8.22, 8.5, 8.5, 8.5, 8.78, 8.78, 8.78, 8.78, 8.78, 9.02, 9.02, 9.3, 8.94, 8.73, 9.01, 8.65, 8.65, 8.29, 8.37, 8.0, 8.0, 8.27, 7.9, 7.9, 8.15, 8.15, 8.15, 7.76, 8.0, 8.0, 7.81, 7.71, 7.51, 7.51, 7.26, 7.21, 6.94, 7.06, 7.06, 7.13, 6.68, 6.68, 6.23, 6.23, 5.78, 5.33, 4.89, 4.88, 3.98, 4.41, 4.85, 4.92, 4.92, 5.36, 5.81, 6.26, 6.2, 5.86, 6.28, 6.07, 6.21, 6.26, 6.71, 6.71, 7.15, 7.6, 12.96, 10.05, 1.4, -2.8, -3.47, -3.97, -3.97, -3.69, -2.9, -1.55, -2.29, -2.2, -2.2, -2.2, -2.2, 6.97, 6.97, 6.97, 6.97, 6.97, 6.97, 6.97, 7.33, 7.33, 7.61, 7.61, 7.61, 7.61, 7.61, 7.93, 7.93, 8.22, 8.22, 8.5, 8.5, 8.78, 8.78, 8.78, 8.78, 8.78, 8.78, 8.78, 9.08, 8.73, 8.73, 9.01, 8.65, 8.65, 8.29, 8.37, 8.37, 8.0, 8.0, 8.27, 7.9, 7.9, 8.15, 8.15, 8.15, 8.15, 8.4, 8.0, 8.0, 7.81, 7.51, 7.51, 7.26, 7.4, 7.4, 7.51, 7.07, 7.06, 7.13, 6.68, 6.68, 6.23, 5.78, 5.78, 5.33, 4.89, 4.34, 3.39, 3.53, 3.58, 4.47, 5.36, 6.21, 6.26, 5.81, 5.36, 5.31, 5.75, 6.2, 6.65, 6.65, 6.65, 6.71, 9.83, 10.62, 3.07, -1.41, -3.47, -3.55, -3.97, -4.22, -4.22, -3.47, -2.2, -2.29, -2.2, -2.2, -2.2, -2.2, 6.97, 6.97, 6.97, 6.97, 6.97, 6.97, 6.97, 7.61, 7.61, 7.61, 7.61, 7.61, 7.61, 7.61, 7.61, 7.93, 8.22, 8.22, 8.22, 8.5, 8.78, 8.78, 8.78, 8.78, 8.78, 8.78, 9.08, 8.73, 8.73, 8.73, 8.65, 8.65, 8.29, 8.55, 8.37, 8.0, 8.0, 8.27, 8.27, 7.9, 7.9, 8.15, 8.15, 8.28, 8.28, 8.51, 8.51, 8.0, 8.22, 8.0, 7.51, 7.69, 7.84, 7.4, 7.4, 7.51, 7.07, 7.06, 7.06, 6.61, 6.6, 6.16, 5.7, 5.24, 5.24, 4.8, 4.34, 3.39, 4.41, 4.02, 5.31, 6.26, 6.26, 6.26, 6.21, 5.75, 5.36, 5.75, 6.02, 6.07, 5.59, 5.75, 8.46, 5.77, -0.0, -3.9, -3.79, -3.79, -4.22, -4.67, -4.29, -3.79, -3.11, -3.0, -2.2, -2.11, -2.11, -2.11, 6.97, 6.97, 6.97, 6.97, 6.97, 6.97, 7.26, 7.61, 7.61, 7.61, 7.61, 7.61, 7.61, 7.61, 7.61, 7.93, 8.22, 8.22, 8.22, 8.5, 8.78, 8.78, 8.78, 8.78, 8.78, 8.45, 8.73, 8.73, 8.73, 8.65, 8.65, 8.29, 8.55, 8.55, 8.37, 8.0, 8.27, 8.27, 8.27, 8.27, 7.9, 8.15, 8.15, 8.68, 8.68, 8.51, 8.51, 8.1, 8.22, 8.0, 8.0, 7.74, 7.74, 7.87, 7.4, 7.4, 7.51, 7.07, 7.06, 7.06, 6.61, 6.16, 6.14, 5.7, 5.24, 5.24, 4.6, 4.11, 4.11, 3.95, 4.85, 5.81, 6.26, 6.26, 6.26, 6.26, 6.26, 5.75, 5.59, 5.59, 5.09, 5.75, 6.26, 4.92, -0.0, -2.88, -3.47, -3.97, -4.56, -5.0, -4.29, -4.22, -4.22, -3.0, -2.11, -2.2, -2.2, -2.2, 6.97, 6.97, 6.97, 6.97, 6.97, 7.26, 7.26, 7.61, 7.32, 7.32, 7.61, 7.61, 7.61, 7.61, 7.61, 8.22, 8.22, 8.22, 8.22, 8.22, 8.78, 8.78, 8.45, 8.45, 8.45, 8.73, 8.73, 8.73, 8.38, 8.65, 8.65, 8.29, 8.55, 8.55, 8.0, 8.27, 8.27, 8.27, 8.27, 8.27, 8.27, 8.15, 8.28, 8.68, 8.28, 8.51, 8.51, 8.3, 8.22, 8.0, 8.0, 8.17, 8.17, 7.74, 7.87, 7.4, 7.51, 7.51, 7.51, 7.06, 7.06, 6.6, 6.16, 5.7, 5.57, 5.51, 5.09, 5.02, 4.27, 4.15, 4.15, 5.29, 5.31, 5.81, 5.81, 6.26, 6.21, 5.75, 5.75, 5.34, 5.09, 4.85, 5.36, 6.66, 4.02, -0.0, -2.72, -3.79, -4.29, -5.0, -5.0, -5.35, -4.22, -3.11, -2.88, -3.0, -3.0, -3.0, 6.97, 6.97, 6.97, 6.97, 6.97, 7.26, 7.26, 7.32, 7.32, 7.32, 7.32, 7.61, 7.61, 7.61, 7.61, 7.91, 8.22, 8.22, 8.22, 8.22, 8.52, 8.45, 8.45, 8.73, 8.73, 8.73, 8.73, 8.38, 8.65, 8.65, 8.29, 8.55, 8.55, 8.55, 8.18, 8.43, 8.43, 8.43, 8.43, 8.43, 8.43, 8.68, 8.68, 8.68, 8.28, 8.51, 8.51, 8.22, 8.22, 8.42, 8.0, 8.17, 8.17, 8.17, 7.87, 7.84, 7.4, 7.51, 7.51, 7.51, 7.06, 6.61, 6.6, 6.04, 5.57, 5.57, 5.51, 5.51, 4.8, 4.22, 3.83, 5.09, 5.09, 5.16, 5.59, 6.02, 6.07, 6.02, 5.75, 5.59, 5.29, 5.36, 6.26, 7.56, 8.46, 2.8, -0.66, -3.64, -5.06, -5.37, -5.69, -5.69, -5.06, -4.01, -3.22, -2.88, -2.88, -2.88, 6.97, 6.97, 6.97, 6.97, 7.26, 7.26, 6.98, 7.32, 7.32, 7.32, 7.32, 7.32, 7.32, 7.32, 7.6, 7.6, 7.9, 8.22, 8.22, 8.22, 7.9, 8.19, 8.45, 8.45, 8.73, 8.38, 8.38, 8.65, 8.65, 8.29, 8.29, 8.55, 8.37, 8.37, 8.18, 8.43, 8.43, 8.43, 8.43, 8.43, 8.68, 8.68, 8.68, 8.68, 8.28, 8.51, 8.51, 8.22, 8.22, 8.0, 8.0, 8.64, 8.64, 8.21, 8.3, 7.87, 7.87, 7.87, 7.51, 7.51, 7.07, 7.06, 6.61, 6.47, 6.04, 5.99, 5.57, 5.4, 5.31, 5.08, 5.08, 4.8, 5.09, 5.16, 5.59, 6.02, 6.21, 6.21, 6.65, 6.2, 6.26, 6.71, 6.66, 8.01, 8.82, 4.92, -0.0, -3.48, -5.09, -5.72, -5.72, -5.72, -5.06, -4.74, -4.01, -3.11, -3.11, -3.11, 6.71, 6.71, 6.71, 7.26, 7.26, 6.98, 6.98, 7.32, 7.32, 7.32, 7.32, 7.32, 7.32, 7.32, 7.6, 7.6, 7.6, 7.9, 7.9, 7.9, 7.9, 8.19, 8.19, 8.19, 8.38, 8.38, 8.65, 8.65, 8.65, 8.29, 8.29, 8.55, 8.37, 8.0, 8.18, 8.43, 8.43, 8.43, 8.43, 8.43, 8.68, 8.68, 8.68, 8.68, 8.68, 8.91, 8.0, 8.22, 8.0, 8.0, 8.48, 8.64, 8.64, 8.77, 8.33, 8.41, 7.97, 7.87, 7.97, 7.51, 7.51, 7.07, 7.06, 6.51, 6.47, 6.04, 5.81, 5.81, 5.81, 5.47, 5.47, 5.43, 4.8, 6.36, 5.31, 6.21, 6.65, 6.71, 6.71, 6.26, 6.71, 7.11, 7.42, 7.89, 9.26, 6.21, -0.0, -2.8, -5.44, -6.13, -6.0, -6.07, -5.72, -5.06, -4.36, -3.55, -3.55, -3.55, 6.33, 6.33, 6.71, 6.98, 6.98, 6.98, 6.98, 7.32, 7.32, 7.32, 7.32, 7.32, 7.32, 7.32, 7.6, 7.6, 7.6, 7.9, 7.9, 7.9, 7.9, 8.19, 8.19, 8.19, 8.15, 8.15, 8.44, 8.44, 8.08, 8.08, 8.37, 8.37, 8.37, 8.0, 8.0, 8.43, 8.43, 8.43, 8.43, 8.68, 8.68, 8.68, 8.68, 8.68, 9.01, 8.51, 8.3, 8.0, 8.0, 8.42, 8.64, 8.64, 8.64, 8.77, 8.33, 8.42, 8.41, 7.97, 7.97, 7.97, 7.51, 7.51, 7.07, 6.94, 6.94, 6.51, 6.3, 6.3, 5.81, 5.6, 5.6, 6.0, 5.6, 6.79, 5.31, 6.21, 6.65, 6.71, 6.71, 6.2, 6.51, 6.94, 7.21, 7.71, 8.8, 8.01, 2.24, -1.34, -3.97, -5.59, -6.0, -6.0, -5.72, -5.38, -4.74, -3.9, -3.9, -3.9, 6.33, 6.33, 6.71, 6.98, 6.98, 6.98, 6.98, 7.32, 7.32, 7.32, 7.32, 7.32, 7.32, 7.32, 7.6, 7.6, 7.6, 7.9, 7.9, 7.9, 7.9, 8.19, 8.19, 8.19, 8.15, 8.15, 8.44, 8.44, 8.08, 8.08, 8.37, 8.37, 8.37, 8.0, 8.0, 8.43, 8.43, 8.43, 8.43, 8.68, 8.68, 8.68, 8.68, 8.68, 9.01, 8.51, 8.3, 8.0, 8.0, 8.42, 8.64, 8.64, 8.64, 8.77, 8.33, 8.42, 8.41, 7.97, 7.97, 7.97, 7.51, 7.51, 7.07, 6.94, 6.94, 6.51, 6.3, 6.3, 5.81, 5.6, 5.6, 6.0, 5.6, 6.79, 5.31, 6.21, 6.71, 6.71, 6.71, 6.2, 6.51, 6.7, 7.21, 6.79, 7.89, 8.46, 8.46, 4.02, 0.63, -1.58, -3.84, -5.46, -5.46, -5.15, -4.43, -4.01, -4.01, -4.01]}, {"header": {"dx": 0.06612293990616946, "dy": 0.0552356325346848, "nx": 98, "ny": 59, "la1": 35.046912555036876, "la2": 31.78801023549047, "lo1": -121.43107172385933, "lo2": -114.95102361305473, "refTime": "2026041602", "parameterCategory": 1, "parameterNumber": 3}, "data": [-13.73, -13.73, -13.73, -13.49, -12.86, -12.27, -11.67, -11.06, -10.45, -10.13, -9.21, -7.95, -6.31, -3.91, -2.35, -0.76, 0.0, 0.0, 0.0, 0.0, 0.0, 0.0, 0.0, 0.0, -3.35, -4.92, -5.2, -5.2, -5.09, -4.66, -4.85, -4.47, -4.02, -3.47, -2.8, -3.2, -2.21, -3.16, -3.16, -3.07, -2.73, -4.01, -4.22, -5.46, -5.64, -6.31, -6.9, -5.67, -3.16, 0.0, 0.0, 0.82, 1.56, 1.52, 1.64, 2.37, 2.31, 2.31, 2.31, 2.37, 1.6, 1.54, 2.37, 2.37, 1.6, 2.31, 2.31, 2.31, 3.11, 2.99, 2.44, 2.44, 1.58, 1.56, 1.56, 0.76, 0.73, 0.0, 0.0, 0.0, 0.0, 0.0, 0.76, 1.86, 4.47, 4.92, 4.92, 4.47, 3.51, 3.95, 3.95, 4.41, 4.41, 4.24, 3.74, 3.07, 2.79, 2.51, -13.73, -13.38, -13.38, -13.15, -13.15, -12.6, -11.67, -11.06, -10.45, -10.43, -9.8, -8.76, -6.42, -4.37, -3.35, -2.26, -0.81, 0.0, 0.0, -0.88, 0.0, 0.0, 0.0, 0.0, -2.53, -4.92, -5.2, -5.2, -5.2, -4.4, -4.15, -3.95, -2.68, -2.24, -2.12, -2.23, -2.21, -3.16, -3.16, -3.79, -4.43, -5.06, -6.01, -7.36, -7.79, -7.36, -5.6, -3.21, -0.8, 0.0, 0.0, 0.0, 0.75, 0.68, 1.42, 1.54, 1.6, 1.6, 1.6, 1.6, 1.54, 1.54, 1.54, 1.6, 1.6, 2.31, 2.31, 2.31, 2.31, 2.37, 2.28, 1.52, 1.56, 0.76, 0.76, 0.8, 0.75, 0.0, 0.0, 0.0, 0.0, 0.0, 0.76, 1.86, 4.47, 4.92, 4.92, 4.47, 3.51, 3.95, 3.95, 4.41, 4.41, 4.24, 3.74, 3.07, 2.79, 2.51, -13.66, -13.66, -13.15, -13.15, -13.15, -12.9, -12.27, -11.06, -10.75, -10.43, -9.8, -8.5, -6.42, -4.96, -3.09, -2.51, -1.52, -1.6, -1.7, -1.08, -1.83, -1.08, -1.27, -1.13, -2.53, -4.47, -4.8, -4.84, -5.34, -5.34, -5.34, -4.66, -3.58, -2.24, -3.04, -2.98, -3.48, -3.79, -4.46, -5.15, -5.69, -6.95, -7.82, -8.01, -7.12, -5.51, -2.47, -0.76, 0.0, 0.0, 0.0, 0.0, 0.0, 0.0, 0.68, 0.8, 0.77, 0.77, 0.8, 1.54, 1.54, 1.54, 2.37, 2.22, 2.37, 2.37, 2.31, 2.31, 2.31, 1.6, 1.54, 1.58, 1.52, 1.52, 1.56, 0.76, 0.75, 0.0, 0.0, 0.0, 0.0, 0.0, 0.71, 2.17, 3.58, 4.92, 5.36, 4.47, 3.58, 3.95, 3.95, 3.51, 3.51, 3.32, 3.07, 2.86, 2.53, 1.84, -13.66, -13.44, -13.09, -12.8, -12.8, -12.8, -12.27, -11.67, -11.36, -10.43, -10.09, -9.42, -7.9, -5.21, -4.03, -3.4, -2.51, -2.64, -2.29, -1.7, -1.7, -1.3, -2.4, -2.4, -3.48, -4.02, -4.8, -4.84, -5.34, -6.28, -6.28, -6.51, -6.07, -4.47, -3.82, -4.0, -3.93, -4.43, -6.44, -7.06, -7.68, -7.9, -6.79, -5.52, -4.07, -2.35, -0.8, 0.0, 0.0, 0.0, 0.0, 0.0, 0.0, 0.0, 0.0, 0.0, 0.74, 0.77, 1.6, 1.6, 2.37, 2.37, 2.31, 2.31, 2.37, 2.37, 2.31, 2.18, 2.76, 2.82, 3.07, 2.31, 2.31, 2.15, 1.39, 0.75, 0.0, 0.0, 0.0, 0.0, 0.0, 0.0, 1.86, 2.68, 3.51, 4.85, 4.85, 4.02, 3.13, 3.13, 3.13, 3.13, 3.07, 2.8, 2.5, 1.88, 1.61, 1.88, -13.3, -13.09, -13.09, -13.09, -12.8, -12.56, -12.56, -12.27, -11.36, -10.43, -9.77, -9.42, -7.97, -6.01, -4.56, -4.03, -3.47, -3.0, -2.29, -3.22, -3.49, -3.48, -2.73, -2.6, -3.63, -4.34, -5.2, -4.8, -5.26, -6.07, -6.98, -7.42, -7.42, -7.15, -7.06, -6.79, -6.8, -6.7, -7.69, -7.69, -7.06, -5.59, -3.91, -3.27, -2.31, -1.65, -0.79, 0.0, 0.0, 0.0, 0.0, 0.0, 0.0, 0.0, 0.0, 0.0, 0.8, 1.54, 1.6, 2.37, 2.37, 2.37, 2.37, 2.37, 2.28, 2.28, 2.34, 3.07, 4.68, 4.8, 4.6, 3.95, 3.69, 3.11, 1.54, 0.0, 0.0, -0.77, -0.74, 0.0, -0.63, 0.65, 2.24, 2.6, 3.83, 3.74, 3.95, 3.13, 3.13, 2.68, 2.68, 2.6, 2.6, 2.23, 1.9, 1.61, 1.88, 2.5, -13.38, -13.09, -13.09, -13.09, -12.8, -12.56, -12.56, -12.56, -11.63, -10.72, -9.72, -9.02, -7.64, -5.89, -5.24, -4.83, -4.03, -4.42, -4.65, -5.37, -6.18, -6.4, -5.81, -5.2, -4.65, -4.77, -4.82, -4.82, -4.82, -5.7, -6.65, -7.15, -7.6, -8.01, -7.45, -6.98, -6.7, -5.77, -7.06, -7.42, -6.44, -4.11, -3.33, -2.4, -1.58, -0.79, 0.0, 0.0, 0.0, 0.0, 0.0, 0.0, 0.0, 0.75, 0.79, 1.52, 1.58, 2.28, 2.37, 2.31, 2.22, 1.6, 1.54, 1.58, 2.25, 3.02, 3.78, 5.76, 5.76, 5.41, 4.8, 4.8, 4.5, 3.02, 1.62, 0.0, -0.76, -0.74, -0.7, -0.66, 0.0, 1.7, 2.4, 2.5, 2.53, 2.5, 2.4, 2.17, 2.17, 2.24, 2.24, 2.17, 1.49, 1.86, 1.58, 2.15, 2.91, 3.32, -13.38, -13.38, -13.09, -13.09, -13.09, -12.56, -12.56, -12.22, -11.96, -10.99, -10.01, -8.65, -8.03, -5.49, -5.72, -4.83, -5.1, -5.1, -5.59, -5.69, -5.69, -6.79, -6.94, -6.94, -7.06, -5.81, -4.34, -4.34, -4.82, -6.2, -6.26, -6.71, -6.66, -6.79, -6.79, -6.55, -6.28, -4.65, -3.79, -6.28, -5.26, -2.97, -2.53, -0.99, 0.0, 0.0, 0.78, 0.74, 0.76, 1.11, 1.16, 1.52, 1.68, 2.39, 2.31, 2.34, 2.34, 2.34, 1.6, 1.55, 0.75, 0.77, 0.8, 1.56, 3.88, 5.64, 6.7, 6.05, 5.52, 3.95, 3.11, 3.11, 2.21, 1.56, 0.79, 0.0, 0.0, 0.0, 0.0, 0.0, 0.6, 2.6, 2.5, 1.88, 1.4, 1.2, 1.24, 1.26, 1.26, 1.2, 1.2, 1.34, 1.7, 2.12, 2.6, 3.07, 3.51, 3.53, -13.01, -13.01, -12.73, -13.09, -13.09, -12.56, -12.22, -12.22, -11.63, -11.28, -9.66, -8.55, -7.76, -6.64, -6.17, -5.13, -5.13, -5.38, -5.94, -5.59, -4.83, -3.91, -4.71, -5.37, -5.82, -2.68, -0.95, -0.0, -2.24, -5.26, -6.26, -7.15, -7.08, -6.79, -6.79, -6.55, -4.85, -1.34, 0.0, -0.89, -0.89, 0.0, 0.0, 1.0, 2.21, 2.2, 3.33, 3.09, 3.27, 2.17, 2.31, 2.35, 3.11, 3.25, 2.41, 1.58, 1.58, 0.76, 0.0, 0.0, 0.0, 0.0, 0.78, 3.8, 7.02, 7.97, 7.08, 4.6, 3.21, 2.28, 1.54, 0.78, 0.0, 0.0, 0.0, 0.0, 0.0, 0.0, 0.0, 0.0, 3.07, 3.13, 2.4, 1.2, 0.65, -0.0, -0.0, -0.0, -0.0, -0.0, 0.4, 1.2, 2.24, 3.13, 3.13, 3.58, 3.53, 3.53, -13.01, -13.01, -13.01, -12.73, -12.73, -12.56, -12.22, -12.22, -11.92, -11.28, -10.51, -10.02, -10.16, -9.43, -8.38, -7.68, -7.68, -6.95, -6.32, -5.69, -4.47, -3.4, -3.49, -3.36, -4.0, -2.2, 0.89, 1.79, 0.0, -3.13, -4.47, -4.92, -4.34, -3.82, -4.22, -4.15, -0.89, 1.58, 1.79, 1.34, 2.24, 2.97, 2.98, 2.53, 2.48, 2.4, 2.32, 2.49, 3.27, 3.15, 3.45, 3.06, 2.97, 2.39, 1.56, 0.76, 0.0, -0.74, -0.77, -1.54, -0.8, 0.0, 2.64, 7.07, 8.67, 7.18, 5.76, 4.07, 2.44, 1.52, 0.0, 0.0, -0.79, -1.42, -1.42, -0.79, -0.73, 0.0, 0.0, 1.33, 5.05, 4.93, 3.07, 1.26, -0.0, -0.0, -0.0, -0.71, -0.54, -0.0, 1.26, 2.4, 3.53, 4.02, 4.02, 3.53, 3.53, 3.53, -13.01, -13.01, -13.01, -12.73, -12.51, -12.51, -12.22, -12.16, -11.58, -11.23, -11.07, -11.34, -10.41, -10.83, -10.63, -10.04, -10.04, -10.04, -9.6, -8.8, -8.8, -8.72, -7.9, -7.36, -5.72, -2.4, 1.26, 1.79, 0.0, -1.0, -0.95, 0.0, 0.0, 0.0, 0.0, 0.0, 0.89, 2.68, 2.4, 2.23, 3.07, 3.35, 3.22, 2.6, 1.6, 0.89, 0.83, 1.55, 3.27, 4.0, 4.0, 3.88, 3.21, 1.54, 0.78, 0.0, 0.0, -0.79, -2.25, -2.41, -0.8, 2.6, 7.81, 8.95, 9.05, 7.02, 5.49, 5.13, 2.72, 0.78, 0.0, -0.69, -2.1, -2.19, -2.19, -2.1, -2.35, -1.65, -0.63, 1.88, 5.69, 6.35, 4.75, 2.12, 0.6, -0.54, -1.4, -1.2, -0.0, 1.9, 2.91, 3.82, 3.97, 4.02, 4.02, 3.97, 3.97, 3.97, -13.01, -13.01, -13.01, -12.73, -12.51, -12.51, -12.51, -11.92, -11.87, -11.23, -11.16, -11.72, -11.72, -11.07, -10.66, -10.28, -10.04, -8.68, -7.48, -7.08, -9.6, -10.0, -9.42, -8.06, -7.64, -1.9, 0.0, 0.0, 0.0, -0.8, 0.0, 0.89, 1.79, 1.34, 0.95, 0.0, 1.0, 2.21, 3.16, 3.22, 3.11, 3.22, 2.47, 2.26, 1.1, 0.82, 0.78, 2.35, 3.2, 4.03, 3.91, 4.71, 4.12, 3.91, 3.79, 4.16, 3.2, 0.74, -1.55, -0.88, 3.22, 7.71, 9.75, 10.43, 10.55, 9.27, 8.67, 7.69, 4.65, 1.6, 0.0, -1.36, -3.61, -4.15, -4.15, -4.23, -3.53, -3.09, 0.0, 4.22, 5.69, 5.72, 5.35, 4.07, 1.26, -0.0, -1.26, -0.0, 2.21, 3.32, 3.97, 4.43, 4.43, 4.47, 4.47, 4.41, 3.82, 3.82, -13.01, -13.01, -13.01, -12.73, -12.51, -12.51, -12.51, -11.92, -11.52, -11.23, -11.72, -11.72, -11.8, -11.23, -9.13, -7.9, -5.71, -4.74, -3.83, -3.22, -3.42, -3.4, -2.77, -3.35, -2.26, -1.41, 0.0, -0.0, -0.0, 0.0, 0.0, 1.6, 2.24, 0.95, 1.0, 0.71, 1.49, 3.16, 3.48, 3.22, 3.11, 3.11, 2.47, 2.26, 1.23, 0.81, 1.41, 2.48, 3.79, 4.11, 4.01, 4.65, 5.77, 7.35, 7.21, 7.71, 7.89, 4.81, 0.0, 2.54, 8.49, 10.93, 11.66, 11.18, 11.66, 12.14, 11.45, 9.9, 6.44, 3.33, 1.4, 0.0, -2.83, -4.92, -5.28, -4.83, -3.91, -1.49, 2.0, 6.08, 5.43, 4.65, 4.16, 4.56, 3.55, 1.41, 0.0, 1.49, 3.58, 4.43, 5.77, 4.87, 5.32, 4.47, 4.47, 4.87, 4.24, 4.3, -12.93, -13.01, -13.01, -12.73, -12.51, -12.51, -12.16, -11.58, -11.52, -11.23, -11.44, -11.44, -11.44, -10.94, -9.8, -7.96, -5.06, -3.4, -2.26, -1.71, -1.67, -1.15, -0.54, 0.0, 0.0, 0.0, 0.0, 0.0, 0.54, 1.0, 1.34, 2.0, 1.58, 1.0, 1.58, 1.74, 2.41, 3.07, 3.07, 3.22, 2.6, 2.29, 1.47, 0.81, 0.0, 0.0, 1.9, 3.35, 3.35, 2.84, 3.48, 3.84, 4.8, 5.75, 6.26, 6.23, 6.13, 4.74, 0.8, 4.66, 9.81, 11.06, 11.18, 10.93, 11.52, 11.52, 10.96, 10.25, 7.6, 6.79, 5.94, 4.12, 0.0, -4.56, -5.59, -4.65, -2.15, 0.0, 5.06, 6.32, 5.94, 3.79, 3.47, 3.2, 4.03, 3.2, 2.35, 2.88, 4.24, 4.47, 5.32, 5.77, 5.32, 4.47, 4.47, 4.41, 3.97, 4.24, -12.93, -12.65, -13.01, -13.01, -12.51, -12.51, -11.92, -11.58, -11.52, -11.23, -11.23, -11.23, -11.23, -10.94, -10.12, -8.87, -6.96, -5.26, -3.94, -3.3, -2.77, -2.33, -1.66, -1.16, -0.55, -0.55, -0.57, -0.53, 0.0, 1.34, 1.34, 1.9, 1.6, 1.74, 1.6, 2.53, 2.21, 3.16, 3.07, 2.2, 1.7, 0.76, 0.0, 0.0, 0.0, 3.48, 4.15, 2.97, 2.0, 2.21, 2.53, 2.53, 2.8, 2.68, 3.13, 2.6, 1.4, 1.3, 0.0, 4.02, 8.9, 9.77, 10.47, 10.04, 9.26, 8.8, 8.46, 7.45, 7.81, 6.39, 7.27, 5.59, 0.0, -4.4, -4.66, -2.53, 0.8, 5.06, 6.53, 6.42, 5.38, 3.8, 2.75, 2.9, 2.9, 3.09, 3.09, 2.88, 3.72, 3.97, 5.36, 4.02, 5.81, 5.81, 4.92, 4.87, 3.97, 4.24, -12.93, -12.65, -12.65, -13.01, -12.51, -12.51, -11.92, -11.58, -11.52, -10.94, -11.23, -11.23, -11.23, -10.69, -10.09, -9.5, -8.23, -6.94, -5.86, -5.2, -4.54, -4.02, -2.82, -2.37, -1.71, -1.14, -1.14, -1.09, -0.53, 0.0, 1.16, 1.16, 1.55, 1.55, 2.73, 3.79, 5.01, 3.84, 4.02, 1.55, 0.76, 0.0, 0.0, 0.0, 2.4, 5.2, 6.14, 5.2, 4.09, 1.6, 0.8, 0.8, 1.58, 1.6, 2.0, 1.26, 0.0, -1.6, 0.0, 4.47, 7.42, 6.61, 6.36, 5.37, 5.81, 5.2, 5.2, 4.8, 4.11, 3.45, 4.16, 2.41, -0.89, -2.54, 0.0, 3.58, 6.06, 7.18, 7.08, 6.2, 4.71, 3.06, 2.23, 2.12, 1.45, 1.63, 2.35, 2.2, 4.73, 5.59, 4.02, 4.47, 5.36, 5.81, 5.81, 3.97, 4.24, 4.24, -12.93, -12.93, -12.65, -13.01, -12.51, -12.51, -12.51, -11.92, -11.87, -11.28, -11.23, -10.88, -10.65, -10.36, -9.77, -9.19, -8.87, -8.23, -6.92, -6.25, -5.14, -4.65, -4.13, -2.8, -2.26, -1.71, -0.57, 0.0, 0.0, 0.58, 0.56, 0.53, 0.59, 0.0, 1.41, 2.79, 4.11, 3.79, 2.8, 1.23, 0.0, 0.0, 0.0, 2.16, 4.11, 5.2, 5.7, 5.2, 4.46, 3.79, 2.73, 1.24, 1.49, 1.49, 1.9, 0.71, 0.0, -1.14, 0.0, 4.71, 6.06, 6.52, 5.93, 4.47, 2.23, 1.13, 1.8, 1.2, 2.23, 3.79, 1.98, -0.89, -1.74, -0.0, 3.2, 7.07, 8.27, 8.46, 7.63, 6.45, 5.41, 3.88, 3.27, 2.51, 2.35, 2.47, 1.47, 2.79, 5.43, 5.75, 4.24, 4.92, 5.36, 4.92, 5.77, 3.82, 4.0, 4.0, -12.93, -12.93, -12.45, -12.45, -12.8, -12.51, -12.51, -11.92, -11.58, -11.28, -10.94, -10.65, -10.65, -10.36, -9.77, -9.17, -8.58, -7.96, -7.32, -6.25, -5.8, -5.11, -3.96, -2.9, -1.71, -0.57, 0.0, 0.57, 1.16, 0.56, 0.0, 0.0, 0.0, 0.0, 0.0, 1.55, 2.53, 2.23, 1.13, 0.0, 0.0, 0.0, 1.3, 2.53, 4.65, 5.2, 5.2, 5.2, 4.65, 3.76, 3.76, 3.76, 3.76, 3.45, 3.45, 3.45, 2.26, 1.07, 3.35, 5.72, 6.69, 5.72, 4.46, 3.2, 1.18, 0.81, 0.0, 0.0, 1.6, 0.8, 0.0, -2.68, -0.63, 1.58, 5.43, 7.68, 8.53, 9.31, 8.72, 7.01, 6.45, 4.83, 3.2, 2.88, 3.11, 4.01, 2.07, 4.4, 5.82, 4.8, 4.24, 4.02, 4.47, 4.47, 3.97, 3.82, 3.6, 3.6, -12.93, -12.73, -12.45, -12.45, -12.45, -12.16, -12.16, -11.92, -11.58, -11.28, -10.94, -10.65, -10.65, -10.06, -9.46, -8.87, -8.58, -8.23, -7.59, -6.5, -5.32, -4.62, -3.96, -2.37, -0.57, 0.0, 0.0, 0.0, 0.0, 0.0, 0.0, 0.0, 0.0, -0.53, -0.53, 0.0, 0.0, 0.0, 0.0, 0.0, 0.0, 1.0, 0.8, 1.9, 4.11, 5.01, 5.01, 5.01, 3.76, 3.45, 3.68, 3.45, 3.45, 3.45, 4.47, 4.75, 4.46, 4.46, 5.72, 6.01, 5.46, 4.44, 3.8, 2.54, 1.07, 0.82, 0.0, 0.0, -2.23, -2.73, -1.14, 0.0, 2.26, 4.5, 6.05, 6.14, 6.57, 7.01, 6.79, 6.43, 5.3, 4.71, 3.69, 3.38, 4.11, 5.15, 3.49, 5.82, 5.46, 5.05, 4.8, 3.97, 4.02, 4.02, 3.97, 3.32, 4.66, 4.66, -12.37, -12.73, -12.73, -12.45, -12.45, -12.45, -12.16, -11.92, -11.58, -10.99, -10.94, -10.36, -10.3, -10.06, -9.72, -9.8, -8.87, -8.58, -7.22, -5.83, -5.28, -4.74, -4.62, -3.96, -2.34, -2.28, -1.63, -2.34, -2.34, -1.11, -0.56, 0.0, 0.0, 0.0, -1.07, -1.7, -2.36, -2.82, -2.47, -1.08, 0.0, 0.88, 1.41, 2.6, 3.76, 4.74, 3.76, 3.76, 3.76, 3.45, 3.68, 3.68, 3.68, 4.47, 5.93, 5.69, 5.03, 5.44, 5.72, 5.46, 4.44, 3.35, 2.33, 1.52, 0.78, 0.0, 0.0, -0.82, -1.52, -1.1, 0.0, 3.11, 5.41, 6.24, 4.61, 2.41, 0.78, 0.79, 1.54, 2.34, 2.35, 2.4, 2.88, 3.38, 3.79, 3.49, 3.83, 4.46, 5.82, 4.73, 4.09, 4.24, 3.53, 3.97, 3.82, 3.45, 3.14, 3.14, -12.37, -12.37, -12.37, -12.45, -12.45, -12.45, -12.45, -11.92, -11.58, -11.33, -10.94, -10.36, -10.06, -9.72, -9.72, -9.13, -8.85, -8.82, -8.12, -6.45, -6.31, -6.4, -6.43, -7.25, -6.33, -5.51, -4.68, -3.97, -3.35, -1.14, 0.0, 0.54, 0.71, 0.54, 0.0, -1.76, -3.08, -3.22, -2.32, -1.12, 0.0, 0.56, 1.76, 2.32, 2.82, 3.45, 2.8, 2.8, 2.32, 2.32, 2.49, 2.49, 4.02, 5.59, 3.84, 4.11, 6.01, 4.36, 4.95, 4.44, 3.17, 2.21, 1.14, 0.0, 0.0, 0.0, 0.0, 0.0, 0.78, 2.99, 4.8, 5.67, 5.41, 4.01, 1.56, -0.76, -3.07, -5.0, -2.31, -0.75, 0.0, 1.55, 2.29, 3.07, 3.84, 4.09, 4.46, 4.66, 4.09, 4.09, 3.45, 4.0, 3.82, 3.53, 3.82, 3.45, 2.84, 2.84, -12.37, -12.37, -12.37, -12.09, -12.09, -12.09, -12.09, -11.87, -11.58, -11.33, -10.99, -10.36, -10.06, -9.72, -10.06, -9.17, -8.85, -8.5, -8.45, -8.46, -8.56, -7.57, -7.83, -7.57, -7.85, -6.94, -5.23, -3.97, -2.73, -0.59, 0.0, 0.57, 1.13, 0.53, 0.0, -1.16, -2.48, -2.84, -2.36, -1.65, -0.56, 0.0, 1.1, 1.65, 2.18, 2.32, 2.8, 2.32, 2.32, 1.23, 1.23, 3.76, 5.36, 6.13, 5.93, 4.19, 4.74, 5.06, 5.44, 3.4, 2.4, 1.25, 1.07, 0.0, 0.0, 0.0, 0.79, 2.98, 5.77, 6.73, 7.59, 7.79, 5.45, 0.77, -1.57, -4.71, -8.73, -8.46, -6.79, -3.8, -0.76, 1.63, 2.98, 3.48, 4.81, 3.45, 4.0, 4.66, 4.66, 3.49, 3.07, 3.45, 4.0, 3.6, 3.07, 3.14, 2.84, 2.84, -12.37, -12.37, -12.37, -12.37, -12.09, -11.87, -11.87, -11.87, -11.87, -11.33, -10.99, -10.69, -10.09, -10.06, -9.72, -9.17, -8.85, -8.53, -9.13, -9.19, -8.59, -7.59, -6.96, -7.22, -7.32, -6.5, -5.17, -3.39, -1.73, -0.57, 0.0, 0.0, 0.56, 0.0, 0.0, 0.0, -1.61, -2.23, -2.44, -2.18, -1.14, 0.0, 0.0, 1.14, 1.7, 2.2, 2.32, 1.14, 1.14, 1.14, 2.6, 4.65, 5.75, 5.75, 6.13, 5.93, 5.46, 6.44, 5.72, 3.91, 2.29, 1.6, 0.78, 0.0, 0.0, 0.76, 4.19, 6.02, 6.79, 7.21, 7.81, 8.15, 5.52, 0.72, -6.24, -7.59, -9.21, -9.21, -7.96, -5.0, -0.7, 2.0, 3.16, 3.83, 4.4, 4.4, 4.66, 4.0, 4.66, 3.72, 3.45, 3.6, 3.72, 3.14, 2.79, 2.84, 2.53, 2.53, -12.37, -12.37, -12.37, -12.37, -11.87, -11.87, -11.87, -11.87, -11.87, -11.28, -10.99, -10.69, -10.36, -9.77, -9.72, -9.46, -9.17, -8.56, -8.87, -8.87, -8.22, -6.92, -6.31, -5.67, -5.89, -5.86, -5.17, -4.02, -2.33, -1.71, -0.59, -0.56, 0.0, 0.0, 0.0, -0.55, -1.33, -1.84, -2.48, -2.44, -1.73, -0.54, 0.0, 0.54, 1.19, 1.76, 1.14, 1.14, 1.3, 2.4, 4.11, 5.01, 5.75, 5.01, 5.75, 5.75, 5.2, 5.46, 5.37, 4.65, 2.6, 1.47, 0.82, 0.82, 1.7, 4.19, 6.7, 6.98, 6.07, 5.34, 3.72, 2.53, 0.0, 0.0, -4.02, -5.34, -6.54, -6.94, -4.52, -1.2, 0.65, 1.9, 2.8, 3.32, 3.74, 3.82, 3.74, 3.74, 3.83, 3.49, 3.45, 4.46, 3.14, 3.14, 2.84, 2.51, 2.51, 2.51, -12.0, -12.0, -11.8, -11.8, -11.87, -11.87, -11.52, -11.52, -11.52, -11.28, -11.28, -10.69, -10.36, -9.77, -9.72, -9.46, -9.17, -8.87, -8.58, -8.59, -7.96, -7.16, -6.27, -5.64, -5.23, -5.23, -4.54, -4.05, -3.39, -2.87, -2.35, -1.71, -1.16, -0.56, -1.14, -1.1, -1.16, -1.57, -2.22, -1.73, -1.19, -0.54, 0.0, 0.55, 0.55, 1.11, 1.14, 1.14, 1.41, 2.6, 4.43, 5.01, 4.65, 4.65, 5.2, 5.6, 3.45, 4.22, 4.11, 5.37, 4.29, 2.4, 1.55, 2.98, 4.11, 6.4, 7.21, 8.22, 6.4, 4.46, 1.6, -2.32, 0.0, 1.41, 2.4, 1.27, 0.0, -1.6, 0.0, 1.49, 1.58, 1.86, 2.17, 2.63, 3.07, 3.07, 3.32, 3.32, 3.07, 3.45, 3.22, 2.86, 3.49, 2.79, 2.53, 2.51, 2.51, 2.51, -11.8, -11.8, -11.8, -11.8, -11.8, -11.52, -11.52, -11.52, -11.28, -11.28, -10.94, -10.69, -10.36, -10.09, -9.77, -9.17, -9.17, -8.87, -8.58, -8.59, -8.23, -7.57, -6.92, -5.83, -5.2, -5.23, -4.57, -3.91, -3.42, -2.77, -2.77, -2.28, -1.73, -1.73, -1.65, -1.67, -1.71, -2.12, -2.32, -1.67, -1.14, -0.53, 0.0, 0.0, 0.55, 0.55, 0.0, 0.53, 1.14, 1.67, 2.36, 3.22, 3.79, 4.46, 4.8, 5.2, 4.46, 2.23, 1.58, 3.79, 4.75, 3.33, 2.4, 3.35, 5.43, 6.7, 7.21, 6.94, 6.8, 2.3, 0.0, -2.4, 0.0, 2.28, 4.65, 5.29, 4.15, 3.06, 2.4, 1.24, 1.26, 1.2, 1.79, 2.68, 2.68, 3.13, 3.07, 3.07, 2.91, 3.45, 3.49, 3.14, 2.21, 2.21, 2.51, 2.23, 2.51, 2.51, -12.09, -12.09, -11.8, -11.8, -11.8, -11.52, -11.52, -11.28, -10.94, -10.94, -10.94, -10.69, -10.36, -10.09, -9.77, -9.17, -9.17, -8.87, -8.58, -8.87, -8.23, -7.57, -7.32, -6.5, -5.83, -5.2, -4.54, -4.08, -3.45, -3.45, -2.8, -2.42, -2.17, -2.17, -1.65, -2.17, -2.3, -2.33, -2.21, -1.71, -1.18, -0.57, 0.0, 0.0, 0.0, 0.0, 0.0, 0.0, 0.58, 1.14, 1.16, 1.08, 2.4, 4.09, 5.2, 4.8, 3.79, 3.48, 4.09, 1.58, 2.4, 3.4, 3.33, 4.11, 4.84, 6.28, 6.79, 6.28, 5.15, 3.22, 0.76, 0.0, 0.0, 1.54, 3.96, 6.2, 6.2, 3.61, 0.7, 0.6, 0.63, 0.89, 1.86, 2.8, 3.97, 4.02, 3.97, 3.51, 3.32, 3.32, 3.45, 3.78, 2.53, 1.88, 1.88, 1.84, 1.84, 1.84, -11.72, -11.72, -11.44, -11.8, -11.8, -11.52, -11.28, -11.28, -10.94, -11.23, -10.65, -10.36, -10.36, -10.09, -9.77, -9.48, -9.17, -8.87, -8.58, -8.87, -8.23, -8.23, -7.32, -6.92, -6.27, -5.86, -5.2, -4.54, -3.91, -3.45, -2.8, -2.8, -2.8, -2.8, -2.3, -2.3, -2.3, -2.3, -2.3, -1.67, -1.14, -0.58, -0.59, 0.0, 0.0, 0.0, 0.0, 0.0, 0.0, 0.0, 0.0, 0.0, 0.59, 1.9, 3.6, 2.8, 3.48, 4.09, 2.23, 2.6, 1.27, 2.47, 2.49, 4.11, 6.13, 6.28, 5.75, 4.43, 3.22, 2.47, 0.78, 0.0, -0.8, 0.0, 3.11, 5.3, 4.65, 2.69, 0.0, 0.0, 0.0, 0.63, 1.86, 2.86, 3.82, 4.47, 4.41, 3.82, 3.32, 2.91, 3.07, 2.84, 2.79, 2.15, 1.61, 1.33, 1.33, 1.33, -11.72, -11.72, -11.44, -11.23, -11.23, -11.23, -10.94, -10.94, -11.23, -10.65, -10.65, -10.65, -10.36, -10.09, -9.77, -9.48, -9.48, -8.87, -8.58, -8.58, -7.96, -7.96, -7.59, -6.94, -6.53, -5.86, -5.2, -5.2, -4.54, -3.89, -3.57, -3.42, -2.77, -2.93, -2.8, -2.28, -2.3, -2.3, -1.75, -1.67, -1.69, -1.16, -0.56, 0.0, 0.0, 0.0, 0.0, 0.0, 0.0, 0.0, 0.0, 0.0, 0.0, 1.9, 2.91, 3.2, 3.48, 4.09, 3.74, 2.8, 1.24, 1.6, 1.72, 3.22, 5.43, 6.8, 4.01, 2.6, 0.82, 0.0, 0.0, 0.0, -0.8, -0.76, 0.0, 0.0, 0.0, 0.8, 0.0, 0.0, 0.0, 0.63, 2.17, 4.47, 5.36, 5.36, 5.77, 3.82, 3.32, 2.5, 2.5, 1.88, 2.79, 1.8, 1.33, 1.33, 1.33, 1.33, -11.52, -11.52, -11.23, -11.23, -11.23, -11.23, -10.94, -10.94, -11.23, -10.65, -10.65, -10.65, -10.65, -10.09, -9.77, -9.48, -9.48, -9.19, -8.58, -8.58, -8.24, -7.96, -7.59, -6.94, -6.94, -6.56, -5.89, -5.44, -5.0, -4.54, -3.89, -3.57, -3.42, -2.9, -2.77, -2.93, -2.28, -2.28, -2.3, -1.67, -1.69, -1.16, -1.1, -0.83, 0.0, 0.0, 0.0, -0.57, -1.14, -1.14, -1.19, -0.59, 0.0, 1.61, 2.5, 2.5, 3.16, 3.72, 3.6, 2.23, 0.71, 0.81, 1.7, 3.48, 4.22, 4.43, 4.74, 3.47, 0.81, -0.76, -0.78, -0.76, -0.77, -2.44, -4.5, -5.63, -3.95, -0.74, 0.0, 0.0, 0.0, 0.51, 1.57, 3.22, 4.09, 5.31, 4.87, 3.07, 2.53, 1.88, 1.2, 1.16, 0.7, 1.27, 1.13, 1.33, 0.59, 0.59, -11.16, -11.16, -11.16, -11.23, -11.23, -11.23, -11.23, -10.99, -10.65, -10.65, -10.65, -10.3, -10.06, -9.77, -9.77, -9.77, -9.19, -9.19, -8.87, -8.58, -8.24, -8.24, -7.6, -6.96, -6.96, -6.31, -5.89, -5.67, -5.23, -4.76, -4.54, -3.89, -3.39, -3.57, -3.42, -2.9, -2.93, -2.8, -2.28, -2.3, -1.78, -1.71, -1.73, -1.12, -0.58, 0.0, 0.0, -0.58, -1.19, -1.27, -0.61, 0.51, 1.16, 2.23, 2.53, 2.21, 2.15, 2.15, 1.9, 1.98, 0.85, 0.88, 2.3, 3.16, 3.07, 3.35, 4.11, 4.74, 3.35, 0.0, -2.4, -0.83, 0.0, 0.0, -3.11, -5.3, -4.68, -3.11, -0.75, 0.0, 0.0, 0.0, 1.1, 3.35, 4.45, 4.07, 2.5, 2.07, 1.49, 0.76, 0.65, 0.0, 0.66, 0.7, 0.59, 0.59, 0.59, 0.59, -11.16, -11.16, -11.16, -10.88, -10.88, -10.65, -10.65, -10.65, -10.65, -10.65, -10.65, -10.3, -10.06, -10.06, -9.77, -9.77, -9.48, -9.19, -8.87, -8.58, -8.24, -7.6, -7.6, -6.96, -6.7, -6.31, -6.33, -5.92, -5.02, -4.76, -4.76, -4.54, -4.05, -3.89, -3.39, -3.42, -3.42, -2.93, -2.8, -2.3, -2.19, -2.21, -1.71, -1.76, -1.8, -1.63, -0.74, -0.58, 0.0, 0.0, 0.55, 1.19, 1.73, 2.23, 2.23, 2.21, 1.88, 1.9, 1.49, 1.74, 0.87, 1.6, 2.3, 2.3, 1.66, 1.66, 1.6, 1.58, 3.16, 1.13, 0.0, 0.0, 2.51, 3.02, 0.77, -2.34, -4.68, -4.68, -3.02, -1.54, 0.0, 0.0, 1.59, 2.69, 3.91, 3.8, 2.2, 0.61, 0.0, 0.0, 0.0, 0.0, 0.0, 0.0, 0.0, 0.0, 0.0, 0.0, -11.16, -11.16, -11.16, -10.88, -10.65, -10.65, -10.65, -10.65, -10.65, -10.65, -10.3, -10.06, -10.06, -10.06, -9.77, -9.48, -9.48, -9.19, -8.87, -8.58, -8.24, -7.6, -7.6, -6.96, -6.7, -6.58, -6.33, -5.69, -5.63, -4.6, -5.02, -5.23, -4.54, -4.54, -4.05, -3.89, -3.42, -3.45, -2.8, -2.97, -2.83, -2.33, -2.37, -2.26, -2.26, -2.26, -1.73, -0.59, 0.0, 0.57, 1.12, 1.14, 1.7, 1.57, 1.8, 1.84, 1.88, 1.2, 1.2, 1.2, 1.6, 1.8, 1.49, 0.76, 0.7, 0.76, 0.0, 0.0, 0.0, 0.0, 0.81, 2.53, 2.2, 2.33, 2.41, 0.0, -2.41, -4.0, -3.06, -1.43, 0.0, 1.42, 2.1, 2.67, 2.9, 2.77, 1.61, 0.54, 0.0, 0.0, 0.0, 0.0, 0.0, 0.0, 0.0, 0.0, 0.0, 0.0, -11.16, -11.16, -11.16, -11.16, -10.65, -10.65, -10.65, -10.65, -10.65, -10.3, -10.06, -10.06, -10.06, -10.06, -9.77, -9.48, -9.48, -9.17, -8.58, -8.58, -8.24, -7.96, -7.6, -6.96, -6.7, -6.58, -6.33, -5.69, -5.7, -5.63, -5.06, -5.04, -5.02, -5.23, -4.76, -4.08, -4.08, -3.42, -3.45, -3.3, -2.83, -2.86, -2.71, -2.23, -2.4, -2.26, -1.61, -0.55, 0.0, 0.0, 0.0, 0.58, 0.59, 1.08, 1.11, 1.13, 0.61, 1.16, 1.2, 1.2, 1.88, 1.49, 2.4, 0.65, 0.76, 0.76, 0.0, 0.0, 0.0, 0.0, 1.47, 2.2, 1.55, 0.0, 0.0, 0.0, 0.0, 0.0, 0.0, 0.67, 1.42, 2.1, 2.18, 2.18, 1.69, 1.14, 0.53, 0.0, 0.0, -0.66, 0.0, 0.0, 0.0, 0.0, 0.0, 0.0, 0.54, 0.54, -11.44, -11.44, -11.16, -11.16, -10.65, -10.65, -10.65, -10.65, -10.3, -10.06, -10.06, -10.06, -10.06, -9.72, -9.46, -9.17, -9.17, -9.17, -8.87, -8.58, -8.24, -7.96, -7.6, -6.96, -6.7, -6.58, -6.33, -6.08, -6.33, -5.69, -5.04, -5.04, -5.04, -5.26, -5.02, -4.57, -4.57, -3.91, -4.12, -3.45, -3.49, -3.01, -2.86, -2.89, -2.23, -2.23, -1.71, -1.71, -1.09, -0.59, 0.0, 0.0, 0.0, 0.61, 0.63, 0.57, 0.59, 0.61, 1.2, 1.2, 2.48, 2.48, 2.73, 2.4, 1.6, 0.87, 0.87, 0.0, 0.0, 0.0, 1.7, 1.99, 0.0, -2.35, -3.14, -0.78, 1.58, 3.11, 3.47, 2.81, 1.38, 0.7, 0.0, 0.0, 0.0, 0.0, 0.0, 0.0, -1.36, -1.11, 0.0, 0.65, 0.7, 0.0, 0.0, 0.0, 1.9, 1.9, -11.07, -11.07, -10.8, -10.8, -10.59, -10.3, -10.3, -10.3, -10.06, -10.06, -10.06, -10.06, -9.72, -9.72, -9.46, -9.17, -9.17, -8.87, -8.87, -8.87, -8.24, -7.96, -7.6, -7.33, -6.7, -6.97, -6.33, -6.33, -6.33, -5.92, -5.26, -5.26, -5.04, -4.6, -4.6, -4.6, -4.6, -4.6, -4.6, -3.94, -3.97, -3.32, -3.35, -2.89, -2.89, -2.23, -2.23, -1.71, -1.71, -1.18, -0.56, 0.0, 0.0, 0.0, 0.0, 0.0, 0.59, 1.16, 1.16, 1.61, 1.88, 2.73, 2.73, 2.98, 2.4, 1.3, 0.87, 0.87, 0.79, 0.0, 0.66, 0.0, 0.0, -1.62, -2.28, 0.0, 3.2, 5.51, 5.41, 3.22, 0.68, -0.73, -1.41, -1.39, -1.44, -0.56, -0.56, -1.44, -1.3, 0.0, 1.8, 1.8, 1.41, 0.73, 0.61, 2.21, 2.91, 2.91, -11.07, -11.07, -11.07, -10.8, -10.59, -10.59, -10.3, -10.06, -10.06, -10.06, -10.06, -9.72, -9.72, -9.46, -9.46, -9.46, -9.17, -8.87, -8.56, -8.56, -8.24, -8.24, -7.61, -7.61, -7.24, -6.97, -6.33, -6.33, -6.33, -5.92, -5.67, -5.23, -5.02, -5.26, -4.6, -5.04, -5.04, -5.04, -4.6, -4.4, -4.16, -4.0, -3.35, -2.89, -2.89, -2.89, -2.37, -2.37, -2.23, -1.73, -1.1, -0.57, -0.58, 0.0, 0.0, 0.0, 0.59, 1.13, 1.33, 1.16, 1.16, 1.61, 1.41, 0.85, 1.49, 1.23, 0.79, 0.73, 0.0, 0.0, 0.0, 0.0, 0.0, 0.0, 0.0, 0.0, 1.54, 3.07, 3.98, 2.14, 0.72, 0.0, -0.69, -1.44, -1.44, -1.44, -1.49, -1.3, -1.35, 0.63, 3.12, 2.73, 2.11, 0.73, 1.4, 1.9, 2.68, 2.68, -11.07, -11.07, -11.07, -11.07, -10.59, -10.59, -10.3, -10.06, -10.06, -10.06, -9.72, -9.72, -9.46, -9.46, -9.46, -9.46, -9.46, -8.56, -8.56, -8.56, -8.24, -7.95, -7.61, -7.61, -7.61, -6.97, -6.97, -6.33, -6.33, -6.33, -5.92, -5.67, -5.67, -5.02, -5.26, -5.04, -5.29, -5.06, -5.06, -4.63, -4.63, -4.44, -4.03, -3.15, -2.92, -2.89, -2.89, -2.89, -2.89, -2.4, -1.63, -1.12, -1.14, -0.59, -0.55, 0.0, 0.59, 1.13, 1.13, 1.13, 1.16, 1.16, 1.41, 0.71, 0.87, 1.23, 0.0, 0.0, 0.0, 0.0, 0.0, 0.0, 1.1, 2.19, 1.6, -0.76, -1.54, -1.58, -1.58, -0.71, 0.0, 0.68, 0.0, 0.0, 0.0, 0.0, -0.64, -1.23, 0.0, 2.04, 3.47, 2.8, 1.35, 1.55, 1.49, 1.9, 1.9, 1.9, -10.96, -10.96, -10.7, -10.51, -10.51, -10.23, -10.01, -9.72, -9.72, -9.72, -9.72, -9.46, -9.46, -9.46, -9.46, -9.46, -9.13, -8.85, -8.85, -8.85, -7.95, -7.95, -7.61, -7.61, -7.61, -6.97, -6.97, -6.97, -6.58, -6.33, -6.33, -6.33, -5.67, -5.67, -5.67, -5.26, -5.04, -5.29, -5.06, -5.06, -5.08, -4.44, -4.71, -4.12, -2.92, -2.89, -3.56, -3.56, -3.37, -2.92, -2.44, -1.65, -1.67, -1.16, -0.55, 0.0, 0.57, 1.11, 1.11, 1.13, 1.13, 1.16, 1.41, 0.87, 0.0, 0.0, 0.0, 0.0, 0.0, 0.0, 0.0, 0.0, 0.96, 2.49, 4.66, 2.31, -1.67, -5.41, -5.63, -4.24, -2.09, 0.0, 0.68, 0.71, 0.67, 0.69, 0.69, 0.0, 0.63, 2.72, 2.82, 2.06, 1.19, 1.55, 1.49, 1.9, 1.2, 1.9, -10.96, -10.96, -10.51, -10.51, -10.51, -10.51, -10.01, -10.01, -9.72, -9.72, -9.46, -9.46, -9.46, -9.46, -9.46, -9.13, -8.85, -8.85, -8.85, -8.24, -8.24, -8.24, -7.9, -7.61, -7.33, -7.33, -6.97, -6.97, -6.97, -6.58, -6.58, -6.33, -6.33, -6.07, -5.92, -5.92, -5.69, -5.04, -5.29, -5.06, -5.08, -5.09, -4.71, -4.08, -4.12, -3.37, -4.03, -4.05, -4.08, -3.42, -2.77, -2.8, -2.36, -1.7, -0.55, 0.0, 0.63, 0.63, 0.57, 0.57, 0.59, 0.59, 0.61, 0.0, 0.0, 0.0, 0.0, 0.0, 0.0, 0.0, 0.0, 0.0, 0.0, 1.1, 5.4, 7.82, 4.01, -1.55, -4.83, -4.12, -2.83, -0.71, 0.0, 1.39, 2.11, 2.76, 2.83, 2.18, 2.12, 2.31, 2.12, 1.49, 1.19, 1.55, 1.2, 1.49, 1.2, 1.2, -10.79, -10.79, -10.79, -10.51, -10.51, -10.51, -10.3, -10.01, -10.01, -9.42, -9.46, -9.46, -9.46, -9.46, -9.13, -8.85, -8.85, -8.85, -8.53, -8.24, -8.24, -8.24, -7.93, -7.61, -7.33, -7.33, -7.33, -6.97, -6.97, -6.7, -6.31, -6.58, -6.58, -6.33, -6.33, -5.92, -5.69, -5.69, -5.29, -5.06, -5.08, -5.09, -5.1, -5.1, -4.71, -4.0, -3.6, -3.42, -3.45, -3.45, -2.8, -3.04, -2.18, -1.19, 0.0, 0.0, 0.61, 0.55, 0.55, 0.57, 0.57, 0.59, 0.0, 0.0, 0.0, 0.0, 0.0, 0.0, 0.0, 0.0, 0.88, 0.0, 0.0, 0.0, 1.23, 6.2, 7.79, 4.6, 0.7, -0.88, 0.0, 0.0, 1.4, 2.21, 2.82, 2.89, 2.75, 2.18, 2.12, 1.44, 0.73, 0.71, 0.67, 0.7, 0.65, 0.65, 1.24, 1.24, -10.41, -10.41, -10.41, -10.15, -10.15, -10.15, -9.94, -9.94, -9.66, -9.42, -9.13, -9.13, -9.13, -9.13, -8.85, -8.85, -8.85, -8.85, -8.53, -8.24, -8.24, -7.93, -7.93, -7.61, -7.33, -7.33, -7.33, -7.61, -7.24, -6.96, -6.7, -6.7, -6.58, -6.58, -6.33, -6.33, -6.08, -5.95, -5.7, -5.7, -5.32, -5.08, -5.09, -5.09, -5.09, -4.44, -3.37, -2.96, -3.0, -2.8, -2.8, -2.16, -1.7, -0.59, 0.0, 0.0, 0.54, 0.61, 0.55, 0.55, 0.57, 0.59, 0.59, 0.0, 0.0, 1.41, 1.14, 0.0, 0.79, 0.87, 0.88, 0.0, 0.0, -1.55, -2.4, 0.0, 2.21, 5.38, 5.29, 4.6, 4.96, 4.2, 3.46, 3.47, 2.82, 2.31, 1.4, 1.4, 0.76, 0.73, 0.0, 0.0, 0.0, 0.0, 1.24, 2.6, 2.6, 2.6, -10.41, -10.41, -10.41, -10.41, -10.15, -9.94, -9.94, -9.94, -9.94, -9.42, -9.42, -9.13, -9.13, -8.85, -8.85, -8.85, -8.85, -8.85, -8.53, -8.24, -8.24, -7.93, -7.93, -7.61, -7.61, -7.33, -7.61, -7.61, -7.61, -7.61, -7.24, -6.97, -6.97, -6.97, -6.33, -6.33, -6.34, -6.34, -5.7, -5.7, -5.72, -5.08, -5.34, -5.09, -5.09, -4.44, -3.56, -2.73, -2.26, -2.29, -2.29, -1.65, -1.12, -0.58, 0.0, 0.0, 0.0, 0.0, 0.0, 0.0, 0.0, 0.0, 0.0, 0.0, 0.0, 1.41, 1.23, 1.14, 1.66, 2.2, 1.7, 0.0, -0.76, -2.29, -3.33, -3.79, -0.77, 2.28, 5.45, 7.71, 8.86, 7.93, 6.32, 5.02, 3.41, 2.15, 1.36, 0.71, 0.0, 0.0, 0.0, 0.0, 0.0, 0.54, 2.6, 3.58, 3.58, 3.58, -10.41, -10.41, -10.41, -10.23, -9.94, -9.94, -9.94, -9.94, -9.94, -9.94, -9.42, -9.42, -9.13, -8.85, -8.85, -8.85, -8.85, -8.53, -8.53, -8.24, -7.93, -7.93, -7.93, -7.61, -7.61, -7.61, -7.61, -7.61, -7.61, -7.61, -7.61, -7.24, -6.97, -6.97, -6.71, -6.33, -6.34, -6.34, -5.7, -5.98, -5.72, -5.08, -5.08, -5.08, -4.69, -4.24, -3.35, -3.56, -2.89, -2.23, -1.73, -1.73, -1.1, -0.57, 0.0, 0.0, 0.0, 0.0, 0.0, 0.0, 0.0, 0.0, 0.0, 0.0, 0.0, 1.3, 1.14, 1.55, 2.4, 1.7, 0.0, 0.0, -1.6, -2.47, -3.2, -2.4, -1.52, 0.79, 3.11, 6.31, 8.61, 9.26, 8.09, 5.81, 3.53, 2.71, 2.1, 0.74, 0.0, 0.0, 0.0, -0.63, 0.0, 2.12, 3.58, 5.77, 5.77, 5.77, -9.86, -9.86, -9.86, -9.86, -9.86, -9.59, -9.59, -9.59, -9.59, -9.37, -9.08, -9.08, -9.08, -8.85, -8.85, -8.85, -8.53, -8.53, -8.24, -8.24, -7.93, -7.93, -7.93, -7.93, -7.61, -7.61, -7.61, -7.61, -7.61, -7.61, -7.61, -7.61, -6.97, -6.97, -6.71, -6.33, -6.34, -6.08, -5.98, -5.72, -5.72, -5.08, -5.08, -4.66, -4.44, -4.0, -3.8, -3.35, -2.86, -2.89, -2.23, -1.71, -1.18, -1.1, -0.57, 0.0, 0.0, 0.0, 0.0, 0.0, 0.0, 0.0, 0.0, 0.0, 0.0, 0.0, 0.0, 0.0, 0.0, 0.79, 0.0, -0.76, -0.82, -1.52, -1.63, -0.79, 0.0, 0.0, 1.56, 4.13, 6.43, 7.82, 7.15, 5.89, 4.31, 2.87, 1.44, 0.0, 0.0, -1.11, -2.28, -0.61, 2.12, 4.47, 6.66, 6.21, 6.21, 6.21, -9.86, -9.86, -9.86, -9.86, -9.86, -9.86, -9.59, -9.59, -9.37, -9.37, -9.37, -9.08, -9.08, -8.82, -8.53, -8.53, -8.53, -8.53, -8.24, -8.24, -7.93, -7.93, -7.93, -7.93, -7.61, -7.61, -7.61, -7.61, -7.61, -7.61, -7.61, -7.33, -6.97, -6.97, -6.71, -6.61, -6.34, -6.08, -5.98, -5.72, -5.72, -5.08, -5.34, -4.69, -4.44, -4.0, -4.0, -3.35, -3.35, -2.89, -2.37, -2.23, -1.73, -1.1, -0.57, 0.0, 0.0, 0.0, 0.0, 0.0, 0.0, 0.0, 0.0, 0.0, 0.0, 0.0, 0.0, 0.0, 0.0, 0.0, -0.73, -0.76, -0.82, -0.78, -0.83, 0.0, 0.0, 0.0, 1.54, 3.06, 4.5, 5.45, 5.46, 6.26, 5.64, 2.87, 0.0, -0.68, -1.56, -3.09, -1.33, 1.26, 3.97, 5.16, 6.07, 6.11, 6.11, 6.11, -9.86, -9.86, -9.86, -9.86, -9.86, -9.86, -9.37, -9.37, -9.37, -9.37, -9.37, -9.37, -9.08, -8.82, -8.82, -8.53, -8.53, -8.24, -8.24, -8.24, -7.93, -7.93, -7.93, -7.93, -7.61, -7.61, -7.61, -7.61, -7.61, -7.61, -7.33, -7.33, -6.97, -6.98, -6.98, -6.34, -6.34, -5.7, -5.72, -5.72, -5.08, -5.34, -5.09, -4.69, -4.69, -4.0, -4.0, -3.35, -3.35, -2.89, -2.89, -2.23, -1.73, -1.63, -0.57, -0.57, 0.0, 0.0, 0.0, 0.0, 0.0, 0.0, 0.0, 0.0, 0.0, 0.0, 0.0, 0.0, 0.0, 0.0, 0.0, 0.0, -0.78, -0.83, -0.74, 0.0, 0.0, 0.0, 1.67, 2.44, 3.21, 3.19, 5.51, 7.97, 7.2, 4.17, 0.0, -2.9, -4.07, -3.38, 0.0, 3.53, 4.73, 5.16, 5.64, 5.64, 5.64, 5.64, -9.86, -9.86, -9.86, -9.5, -9.3, -9.66, -9.37, -9.37, -9.37, -9.37, -9.37, -9.37, -9.37, -8.82, -8.82, -8.82, -8.24, -8.24, -8.24, -7.93, -7.93, -7.93, -7.93, -7.61, -7.61, -7.9, -7.61, -7.61, -7.61, -7.61, -7.33, -6.97, -6.98, -6.98, -6.34, -6.34, -6.08, -5.98, -5.72, -5.32, -5.08, -5.08, -4.69, -4.69, -4.69, -4.03, -3.8, -3.35, -3.35, -2.89, -2.89, -2.23, -1.73, -1.63, -0.61, -0.57, -0.57, 0.0, 0.0, 0.0, 0.0, 0.0, 0.0, 0.0, 0.0, 0.0, 0.0, 0.0, 0.0, 0.0, 0.0, 0.0, 0.0, -0.83, -0.74, 0.0, 0.0, 0.0, 1.65, 1.49, 1.58, 2.28, 5.51, 7.58, 7.08, 5.11, -1.41, -2.84, -2.21, -1.2, 2.4, 4.93, 5.16, 5.86, 5.2, 5.2, 5.2, 5.2, -9.86, -9.86, -9.5, -9.3, -9.3, -9.3, -9.3, -9.37, -9.37, -9.37, -9.37, -9.37, -9.37, -8.82, -8.5, -8.5, -7.93, -7.93, -7.93, -7.93, -7.93, -7.93, -7.93, -7.61, -7.61, -7.61, -7.33, -7.61, -7.33, -7.33, -6.97, -6.98, -6.98, -6.7, -6.34, -6.08, -5.98, -5.72, -5.32, -5.08, -5.08, -4.66, -4.44, -4.69, -4.69, -4.03, -4.03, -3.56, -3.56, -3.37, -2.89, -2.4, -2.26, -1.1, -1.1, -0.56, -0.61, -0.57, 0.0, 0.0, 0.0, 0.0, 0.0, 0.0, -0.57, 0.0, 0.0, 0.0, 0.0, 0.0, 0.0, 0.0, -0.83, -0.83, -0.83, -0.83, 0.0, 0.0, 0.83, 0.79, 1.65, 1.49, 3.32, 4.68, 4.71, 2.9, 0.6, 0.63, 1.7, 2.4, 5.94, 6.64, 6.36, 6.28, 5.64, 5.64, 5.64, 5.64, -9.86, -9.5, -9.3, -9.3, -9.3, -9.3, -9.3, -9.02, -9.02, -9.02, -9.02, -9.02, -8.78, -8.5, -8.5, -8.5, -8.22, -7.93, -7.93, -7.93, -7.93, -7.93, -7.61, -7.61, -7.61, -7.61, -7.33, -7.33, -7.33, -6.97, -6.71, -6.98, -6.7, -6.34, -6.34, -6.08, -5.98, -5.72, -5.32, -5.08, -5.08, -4.66, -4.66, -4.44, -4.44, -4.0, -4.03, -4.03, -3.56, -3.37, -2.73, -2.4, -2.26, -1.73, -1.18, -1.1, -0.56, -0.56, -0.57, -0.57, -0.58, -0.53, -0.59, -0.61, -0.55, -0.57, 0.0, 0.0, 0.0, 0.0, 0.0, 0.0, 0.0, -1.52, -1.63, -1.63, -0.83, 0.0, 0.0, 0.0, 0.79, 0.79, 1.49, 1.54, 2.13, 2.9, 3.13, 5.05, 5.69, 5.69, 6.64, 6.85, 5.44, 6.28, 5.86, 6.07, 6.07, 6.07, -9.3, -9.3, -9.3, -9.3, -9.3, -9.3, -9.3, -9.02, -9.02, -9.02, -9.02, -8.78, -8.78, -8.78, -8.5, -8.5, -8.22, -8.22, -7.93, -7.93, -7.93, -7.61, -7.61, -7.61, -7.61, -7.61, -7.33, -7.33, -6.97, -6.71, -6.98, -6.61, -6.34, -6.34, -6.08, -5.98, -5.72, -5.72, -5.32, -5.08, -5.08, -4.66, -4.66, -4.66, -4.44, -4.0, -4.0, -3.35, -3.56, -2.89, -2.89, -2.23, -2.4, -1.73, -1.18, -1.18, -0.59, -0.56, -0.56, -0.57, -0.57, -0.58, -0.59, -0.54, -0.61, -0.57, -0.73, -0.81, 0.0, 0.0, 0.0, 0.0, 0.0, -0.89, -2.2, -2.35, -1.52, -0.78, 0.0, 0.0, 0.0, 0.0, 0.0, 0.0, 2.15, 2.8, 5.6, 6.25, 5.95, 5.95, 6.64, 6.54, 4.66, 5.34, 5.86, 5.86, 5.86, 5.86, -9.3, -9.3, -9.3, -9.3, -9.3, -9.3, -9.3, -9.02, -9.02, -8.78, -8.78, -8.78, -8.78, -8.78, -8.5, -8.5, -8.22, -8.22, -7.93, -7.93, -7.61, -7.61, -7.61, -7.61, -7.61, -7.61, -7.61, -7.26, -6.98, -6.98, -6.61, -6.34, -6.34, -6.08, -5.98, -5.98, -5.72, -5.72, -5.32, -5.08, -5.08, -4.66, -4.66, -4.66, -4.66, -4.2, -4.0, -4.0, -3.35, -2.89, -2.89, -2.23, -1.71, -1.71, -1.16, -1.09, -1.18, -0.59, -0.56, -0.61, -0.57, -0.58, -0.58, -0.59, -0.54, -1.08, -1.13, -0.59, 0.0, 0.0, 0.0, -0.78, 0.0, 0.0, 0.0, -0.76, -0.82, -0.89, -0.83, -0.83, -0.83, 0.0, 0.0, 1.52, 1.84, 4.24, 6.25, 5.69, 5.95, 6.32, 6.32, 6.25, 4.4, 5.34, 5.86, 5.86, 5.86, 5.86, -9.3, -9.3, -9.3, -9.3, -9.3, -9.3, -9.3, -8.78, -8.78, -8.78, -8.78, -8.78, -8.78, -8.78, -8.78, -8.5, -8.22, -8.22, -8.22, -7.93, -7.61, -7.61, -7.61, -7.61, -7.61, -7.61, -7.26, -6.98, -6.98, -6.98, -6.34, -6.34, -6.08, -5.7, -5.98, -5.72, -5.72, -5.32, -5.32, -5.08, -5.08, -4.66, -4.66, -4.42, -4.42, -3.97, -3.97, -4.0, -3.52, -2.86, -2.89, -2.37, -1.81, -1.71, -1.71, -1.16, -1.09, -1.18, -1.18, -1.1, -1.2, -1.12, -1.14, -1.16, -1.16, -1.07, -1.08, -1.13, -0.73, 0.0, -0.76, 0.0, 0.0, 0.0, 0.78, 0.82, 0.0, -0.82, -1.72, -1.52, -1.6, -0.82, 0.77, 0.72, 1.79, 5.46, 6.07, 6.07, 6.32, 6.0, 5.72, 6.07, 5.43, 6.0, 5.86, 4.93, 4.93, 4.93, -9.3, -9.3, -9.3, -9.3, -9.3, -9.3, -9.08, -8.78, -8.78, -8.78, -8.78, -8.78, -8.78, -8.78, -8.78, -8.5, -8.22, -8.22, -8.22, -7.93, -7.61, -7.61, -7.61, -7.61, -7.61, -7.32, -6.98, -6.98, -6.98, -6.34, -6.34, -6.08, -5.7, -5.7, -5.98, -5.72, -5.32, -5.32, -5.32, -5.32, -5.08, -4.66, -4.66, -4.63, -4.63, -3.97, -3.97, -3.78, -3.52, -2.86, -2.86, -2.21, -2.21, -1.69, -1.71, -1.71, -1.16, -1.09, -1.18, -1.18, -1.1, -1.12, -1.23, -1.14, -1.16, -1.16, -1.73, -1.76, -1.76, -0.79, -0.81, 0.0, 0.0, 0.0, 0.0, 0.0, 0.0, -0.82, -1.6, -1.6, -1.7, -0.82, 0.0, 0.0, 1.34, 5.05, 6.25, 5.95, 6.08, 5.72, 5.72, 6.32, 6.32, 6.0, 4.93, 5.86, 5.86, 5.86, -9.3, -9.3, -9.3, -9.3, -9.3, -9.08, -9.08, -8.78, -8.45, -8.45, -8.78, -8.78, -8.78, -8.78, -8.78, -8.22, -8.22, -8.22, -8.22, -8.22, -7.61, -7.61, -7.32, -7.32, -7.32, -6.98, -6.98, -6.98, -6.7, -6.34, -6.34, -6.08, -5.7, -5.7, -5.72, -5.32, -5.32, -5.32, -5.32, -5.32, -5.32, -4.66, -4.42, -4.63, -4.42, -3.97, -3.97, -3.32, -3.52, -2.86, -2.86, -2.33, -2.33, -2.21, -1.69, -1.71, -1.16, -1.16, -1.16, -1.18, -1.18, -1.2, -1.12, -1.14, -1.67, -1.84, -1.7, -1.88, -2.44, -1.66, -1.66, -0.88, -0.76, 0.0, 0.0, 0.0, -0.78, -0.82, -2.47, -2.29, -1.7, -0.81, 0.0, -0.74, 0.0, 2.68, 6.13, 6.07, 5.72, 5.72, 5.72, 6.01, 6.32, 5.43, 5.05, 6.0, 6.0, 6.0, -9.3, -9.3, -9.3, -9.3, -9.3, -9.08, -9.08, -8.45, -8.45, -8.45, -8.45, -8.78, -8.78, -8.78, -8.78, -8.52, -8.22, -8.22, -8.22, -8.22, -7.91, -7.32, -7.32, -6.98, -6.98, -6.98, -6.98, -6.7, -6.34, -6.34, -6.08, -5.7, -5.7, -5.7, -5.46, -5.06, -5.06, -5.06, -5.06, -5.06, -5.06, -4.63, -4.63, -4.63, -4.42, -3.97, -3.97, -3.52, -3.52, -3.01, -2.86, -2.33, -2.33, -2.33, -1.69, -1.81, -1.71, -1.16, -1.16, -1.16, -1.18, -1.1, -1.2, -1.65, -1.67, -1.67, -1.84, -1.84, -2.4, -2.53, -2.3, -1.7, -1.7, -1.47, -1.6, -1.72, -1.52, -1.72, -2.47, -1.6, -0.88, 0.0, 0.0, -0.76, -0.77, 1.4, 3.97, 5.09, 5.06, 5.37, 5.69, 5.69, 5.06, 4.81, 4.84, 5.05, 5.05, 5.05, -9.3, -9.3, -9.3, -9.3, -9.08, -9.08, -8.73, -8.45, -8.45, -8.45, -8.45, -8.45, -8.45, -8.45, -8.19, -8.19, -7.9, -8.22, -8.22, -8.22, -7.9, -7.6, -7.32, -7.32, -6.98, -6.7, -6.7, -6.34, -6.34, -6.08, -6.08, -5.7, -5.98, -5.98, -5.46, -5.06, -5.06, -5.06, -5.06, -5.06, -4.63, -4.63, -4.63, -4.63, -4.42, -3.97, -3.97, -3.52, -3.52, -2.86, -2.86, -2.3, -2.3, -2.19, -1.78, -1.69, -1.69, -1.69, -1.16, -1.16, -1.09, -1.18, -1.1, -1.76, -1.65, -1.8, -1.67, -2.16, -2.36, -2.82, -2.82, -2.4, -1.7, -1.47, -1.6, -1.72, -0.78, -0.78, -0.83, -0.89, 0.0, 0.0, -0.74, -0.8, -1.47, 0.0, 2.24, 3.48, 3.64, 4.29, 4.29, 4.29, 5.06, 4.74, 4.81, 5.43, 5.43, 5.43, -8.94, -8.94, -8.94, -9.08, -9.08, -8.73, -8.73, -8.45, -8.45, -8.45, -8.45, -8.45, -8.45, -8.45, -8.19, -8.19, -8.19, -7.9, -7.9, -7.9, -7.9, -7.6, -7.6, -7.6, -6.7, -6.7, -6.34, -6.34, -6.34, -6.08, -6.08, -5.7, -5.98, -5.72, -5.46, -5.06, -5.06, -5.06, -5.06, -5.06, -4.63, -4.63, -4.63, -4.63, -4.63, -4.16, -4.0, -3.52, -2.86, -2.86, -2.83, -2.3, -2.3, -1.75, -1.67, -1.2, -1.14, -1.69, -1.14, -1.16, -1.16, -1.09, -1.18, -1.63, -1.76, -1.65, -2.32, -2.32, -2.32, -3.04, -3.04, -3.11, -2.4, -2.12, -0.76, -0.78, -0.83, 0.0, 0.0, 0.0, 0.0, -0.79, -1.65, -1.58, -1.54, -0.78, 0.45, 1.4, 2.04, 2.72, 3.0, 3.79, 4.29, 5.06, 5.09, 5.69, 5.69, 5.69, -9.21, -9.21, -8.94, -8.73, -8.73, -8.73, -8.73, -8.45, -8.45, -8.45, -8.45, -8.45, -8.45, -8.45, -8.19, -8.19, -8.19, -7.9, -7.9, -7.9, -7.9, -7.6, -7.6, -7.6, -6.98, -6.98, -6.63, -6.63, -6.35, -6.35, -5.98, -5.98, -5.98, -5.72, -5.72, -5.06, -5.06, -5.06, -5.06, -4.63, -4.63, -4.63, -4.63, -4.63, -3.94, -3.97, -3.32, -2.86, -2.86, -3.01, -2.3, -2.3, -2.3, -1.75, -1.67, -1.12, -1.2, -1.14, -1.14, -1.14, -1.16, -1.16, -1.09, -1.73, -1.73, -1.63, -2.29, -2.29, -2.32, -2.8, -2.8, -3.0, -2.8, -2.26, -0.76, -0.78, -0.83, 0.0, 0.0, -0.89, -1.63, -1.73, -2.4, -2.31, -1.6, -0.8, 0.0, -0.0, 0.66, 1.6, 3.0, 3.0, 4.29, 4.71, 4.74, 5.46, 5.46, 5.46, -9.21, -9.21, -8.94, -8.73, -8.73, -8.73, -8.73, -8.45, -8.45, -8.45, -8.45, -8.45, -8.45, -8.45, -8.19, -8.19, -8.19, -7.9, -7.9, -7.9, -7.9, -7.6, -7.6, -7.6, -6.98, -6.98, -6.63, -6.63, -6.35, -6.35, -5.98, -5.98, -5.98, -5.72, -5.72, -5.06, -5.06, -5.06, -5.06, -4.63, -4.63, -4.63, -4.63, -4.63, -3.94, -3.97, -3.32, -2.86, -2.86, -3.01, -2.3, -2.3, -2.3, -1.75, -1.67, -1.12, -1.2, -1.14, -1.14, -1.14, -1.16, -1.16, -1.09, -1.73, -1.73, -1.63, -2.29, -2.29, -2.32, -2.8, -2.8, -3.0, -2.8, -2.26, -0.76, -0.78, 0.0, 0.0, 0.0, -0.89, -1.63, -2.51, -2.4, -2.26, -1.58, -0.77, -0.77, 0.0, 0.63, 1.58, 3.07, 3.9, 3.9, 4.29, 4.43, 4.81, 4.81, 4.81]}]